GFSSGP_250_rhum_003.txt.gz
RH
100 77 80 73 100 100 100 100 93 96 99 89 77 92 85 68 63 71 92 84 71 77 50 54 60 56 52 56 66 71 75 70 54 52 46 48 38 30 30 35 32 58 44 39 36 56 36 29 29
100 100 100 100 100 100 100 95 99 100 100 100 99 96 91 85 94 81 60 50 41 45 45 46 55 58 64 61 54 51 50 39 36 26 24 27 25 31 36 40 66 62 52 32 28 26 32 23 49
96 94 94 87 100 100 100 90 100 100 88 100 100 82 70 83 86 74 35 38 47 49 47 49 54 46 46 36 33 22 25 23 28 31 35 52 58 78 60 50 53 45 37 23 19 23 79 50 92
69 83 86 99 81 59 61 77 88 80 100 100 94 84 77 80 70 64 59 55 54 45 45 48 32 25 22 13 15 15 21 24 38 51 76 91 78 49 22 20 23 32 27 22 23 40 100 100 100
100 100 100 98 77 93 73 69 72 92 98 96 96 87 84 60 51 51 47 34 38 40 35 26 14 12 11 13 16 26 51 66 67 62 37 22 29 27 30 27 24 23 25 26 24 42 72 96 100
98 100 90 97 93 96 100 94 100 89 91 79 70 56 52 48 42 35 28 18 15 12 10 12 12 20 32 31 44 48 45 35 34 42 50 52 49 47 45 39 33 30 27 30 33 44 53 77 100
98 100 86 88 93 92 100 97 92 74 56 47 48 51 44 36 25 16 9 7 11 23 29 30 32 34 33 35 34 34 34 37 38 38 45 49 49 50 49 44 37 32 32 31 31 43 51 62 81
86 83 62 72 96 91 82 76 66 45 46 42 42 37 26 14 8 8 9 12 20 28 32 43 36 34 29 29 31 32 32 32 32 32 35 46 58 66 59 57 63 53 32 30 32 48 52 59 72
99 90 92 95 81 53 47 57 55 46 46 44 32 20 9 10 11 13 15 18 24 32 33 34 37 38 41 38 35 38 38 39 41 44 40 43 43 50 68 73 66 65 72 67 47 41 54 56 62
73 70 52 48 71 66 60 47 46 34 26 22 11 10 12 15 17 20 21 26 30 50 36 31 35 38 38 38 35 36 46 49 56 54 52 52 56 50 51 47 46 59 58 68 70 55 46 44 53
79 74 67 67 67 54 35 26 16 10 10 10 16 18 21 24 23 23 29 36 40 37 36 40 53 52 60 67 68 64 85 92 85 84 93 88 83 84 73 62 64 54 44 48 53 56 59 59 44
59 58 53 46 24 14 12 12 12 12 16 20 19 22 33 35 33 32 32 40 55 68 74 77 62 73 79 79 95 88 73 60 68 89 76 78 93 77 72 84 98 100 85 74 52 42 43 47 48
35 27 26 16 10 9 11 14 19 20 22 25 26 27 28 31 31 32 31 32 33 43 48 45 48 44 52 48 44 46 52 52 60 67 77 80 84 85 88 90 90 97 100 100 100 98 76 52 47
10 10 10 11 12 14 18 19 22 28 29 28 28 26 28 26 28 33 39 42 40 32 31 35 37 35 30 28 37 38 40 50 57 57 54 61 68 67 62 74 78 91 91 80 75 75 75 73 74
10 10 12 15 20 22 21 25 27 28 27 26 29 31 40 46 69 73 65 60 54 46 31 29 34 36 33 34 37 40 43 48 53 59 57 55 50 54 52 54 59 68 69 66 68 62 47 57 60
12 15 18 22 26 26 26 24 27 26 34 41 45 47 40 44 68 84 78 72 79 71 57 52 43 36 36 38 42 41 45 42 37 40 45 43 42 43 47 49 46 49 63 68 71 72 75 59 52
20 20 24 28 32 36 43 50 49 32 41 48 65 75 80 89 72 72 75 93 94 68 64 70 65 52 45 38 42 53 53 48 45 46 50 52 52 55 56 57 64 72 72 78 72 79 73 59 50
23 24 22 23 30 38 42 51 50 48 57 69 75 95 96 95 89 94 82 94 91 89 86 87 86 78 61 51 54 66 64 56 56 66 75 81 82 83 81 78 72 67 78 90 96 96 91 83 63
21 20 21 22 27 30 33 37 43 51 50 62 62 61 68 84 92 93 73 76 77 66 60 57 57 55 62 72 78 68 61 53 55 58 66 77 74 66 59 58 53 51 52 53 57 62 72 64 59
23 27 28 28 25 22 22 26 27 30 27 42 42 40 50 55 59 60 66 55 43 42 46 41 39 41 44 43 46 51 54 57 53 43 46 54 49 53 58 59 55 49 51 55 55 52 53 60 64
28 27 22 23 22 21 17 18 23 22 23 28 32 32 43 36 45 29 42 49 45 38 37 36 37 39 36 33 44 53 58 61 49 72 85 90 89 78 68 65 64 61 57 58 58 57 61 58 60
21 20 20 21 19 23 17 17 22 25 24 35 39 41 33 38 36 26 40 46 42 42 57 67 85 91 89 99 98 100 100 100 100 100 100 100 99 98 97 95 89 72 61 48 42 47 51 63 71
21 23 24 28 24 22 19 19 20 20 20 22 25 21 22 23 30 46 42 40 43 65 85 82 87 84 88 86 98 100 99 100 100 100 100 100 100 88 76 61 52 46 45 43 43 45 40 40 40
27 30 31 30 25 20 20 21 24 21 19 19 23 21 21 26 32 33 33 36 48 48 53 55 54 66 75 76 75 67 58 56 57 55 47 47 47 44 39 36 35 35 32 34 36 37 39 40 45
41 30 32 36 38 40 39 30 24 20 19 23 22 19 24 28 27 27 28 34 42 43 41 40 37 31 33 37 39 42 46 39 34 32 28 33 34 32 32 36 40 41 42 41 40 36 36 36 40
52 51 43 41 45 48 40 37 41 33 27 28 31 34 31 25 27 28 33 32 29 30 35 36 37 41 42 42 42 41 38 41 48 50 46 39 46 48 44 43 43 42 41 31 26 27 28 23 18
40 35 31 26 26 27 28 28 24 22 25 29 43 51 38 38 35 33 34 41 44 50 53 54 50 52 58 60 59 53 62 59 56 52 45 48 48 43 44 40 34 26 19 18 15 16 16 11 9
32 29 27 27 21 21 22 22 28 28 41 64 61 44 44 41 55 59 58 52 49 48 44 48 53 47 45 49 61 61 59 54 52 46 47 48 52 43 32 30 21 17 15 13 11 10 9 10 13
28 28 28 22 20 22 20 49 38 45 67 71 62 65 64 60 53 49 49 48 47 44 46 55 58 67 81 81 71 64 58 48 55 63 63 57 40 26 23 18 17 17 15 14 13 12 11 12 12
20 20 19 20 30 35 39 61 69 58 61 64 66 65 56 48 51 52 45 47 56 74 79 92 97 92 69 76 65 58 56 56 60 62 56 36 25 22 18 18 18 17 15 15 14 12 10 10 11

GFSSGP_250_rhum_006.txt.gz
RH
40 46 50 70 89 72 86 98 96 100 100 100 97 99 85 72 78 85 85 89 96 99 86 86 84 78 75 58 47 49 47 48 57 57 50 36 27 21 21 23 33 38 37 34 32 31 42 34 58
58 70 57 59 72 99 86 100 61 70 100 99 89 67 71 84 65 68 69 77 98 90 78 74 65 60 55 51 39 37 30 35 30 29 26 16 14 15 23 35 64 59 60 54 73 70 57 64 49
88 81 70 98 100 99 100 94 97 100 79 74 83 69 77 100 89 96 100 99 88 80 56 46 42 42 38 30 24 18 13 15 15 14 12 14 20 30 61 64 65 65 84 74 53 46 63 49 35
100 100 100 100 91 96 82 82 86 73 72 74 90 80 89 79 100 100 92 71 52 57 50 44 37 30 22 14 8 11 14 14 19 24 38 57 57 66 51 56 47 34 34 21 20 30 28 28 24
99 99 74 79 69 64 100 100 100 100 100 100 93 84 96 97 86 88 80 44 44 51 45 32 25 9 9 11 17 24 30 34 42 40 33 33 35 38 39 43 42 42 41 38 31 26 25 22 25
100 98 100 97 100 72 79 100 100 94 79 68 100 97 81 66 80 79 70 57 46 37 18 14 8 11 18 24 32 31 28 30 29 34 37 39 41 53 58 55 54 52 50 43 36 26 24 23 26
99 100 100 90 78 94 96 84 91 99 78 82 90 86 62 67 68 63 44 29 20 10 10 12 14 19 23 28 27 26 28 30 31 31 32 33 38 46 50 54 60 56 56 47 39 37 30 27 32
100 90 88 94 100 100 78 81 95 99 90 72 56 71 78 68 50 32 17 10 11 12 15 18 22 29 29 29 30 32 33 38 43 41 42 43 41 42 44 52 66 72 66 64 57 40 35 34 40
68 95 96 93 90 86 96 95 77 72 71 68 72 70 44 25 12 10 11 14 16 27 29 31 33 34 36 38 38 37 37 38 41 42 42 44 49 52 52 56 56 45 47 60 61 70 58 33 28
88 77 67 74 78 72 89 76 69 63 69 64 46 27 12 9 11 15 18 23 30 31 36 33 33 32 32 37 41 40 42 40 39 41 42 46 49 52 56 72 76 69 60 54 53 54 59 68 67
71 63 66 66 69 75 68 72 72 60 35 28 12 9 11 14 24 25 26 29 30 30 30 26 26 28 29 32 36 38 42 49 54 63 62 68 74 64 64 69 77 95 95 79 64 63 64 50 52
84 74 76 74 69 57 56 35 27 17 13 10 14 18 21 26 26 28 30 29 28 28 26 22 24 23 21 22 25 30 34 37 41 47 51 56 55 62 78 72 74 83 92 94 100 100 99 87 65
47 56 44 42 38 30 17 11 10 12 15 19 20 21 25 28 29 27 27 26 23 22 21 22 26 29 29 32 34 36 35 36 38 41 42 48 52 50 45 46 51 51 53 68 66 72 81 90 99
41 37 32 21 18 11 10 13 16 18 20 25 24 24 22 21 20 21 21 30 33 34 41 47 53 54 49 50 45 44 45 51 50 44 42 40 46 50 50 48 47 49 48 46 46 47 53 60 52
23 19 15 12 11 13 16 19 21 23 24 23 20 21 23 29 43 70 74 67 74 79 76 67 61 64 64 56 57 56 59 64 61 59 58 57 60 61 63 64 67 73 75 68 62 58 56 61 57
10 10 9 18 19 22 24 25 26 25 26 43 53 68 80 96 92 87 89 90 74 83 65 74 69 61 55 57 52 44 42 41 43 40 37 40 48 49 51 55 50 47 52 58 61 60 52 52 57
13 15 18 22 28 28 31 26 30 26 36 48 54 60 67 74 76 71 56 47 43 48 42 48 51 49 47 46 50 48 46 44 39 47 53 48 40 37 38 39 39 38 39 43 43 45 45 45 45
17 18 22 27 32 34 36 41 43 45 36 40 41 46 52 53 49 49 49 48 38 31 40 47 47 40 38 39 42 52 62 74 79 79 72 63 62 58 54 52 46 42 44 49 48 49 47 49 47
19 21 22 28 32 34 35 32 32 29 33 39 33 26 26 45 38 39 39 37 41 31 24 27 32 30 26 27 33 36 41 48 51 50 55 56 54 53 52 64 54 50 53 53 50 48 51 49 50
20 20 21 22 22 22 22 22 18 19 21 26 24 25 25 30 32 34 27 30 36 32 28 27 25 26 30 34 41 44 43 45 49 57 67 72 71 68 69 69 83 83 67 68 62 55 47 43 41
17 18 20 23 24 22 22 21 20 19 18 18 18 20 22 26 33 27 24 23 22 24 28 24 29 31 50 67 81 94 99 98 92 96 99 99 97 96 82 77 70 63 54 56 60 54 53 52 54
20 22 21 21 23 25 23 21 21 20 19 23 24 24 27 28 28 28 23 22 26 26 28 55 68 81 91 98 95 88 77 74 75 71 65 63 60 58 60 53 48 47 44 42 42 41 41 46 43
20 20 20 20 19 21 24 21 20 20 21 25 24 26 31 34 33 36 32 30 29 32 56 72 73 70 82 74 67 66 62 55 46 43 42 44 43 42 43 36 32 35 36 37 41 44 42 40 46
20 19 20 21 23 24 24 29 37 36 34 33 36 33 30 31 28 32 37 40 45 48 50 68 72 70 64 64 60 59 47 40 42 38 37 36 36 37 37 38 41 45 46 48 45 45 46 39 38
24 25 27 25 24 23 26 27 28 31 31 30 26 22 24 27 32 40 42 45 50 59 65 63 62 60 57 50 48 45 42 44 43 41 44 47 46 45 46 49 56 58 57 52 49 44 28 23 24
22 23 20 20 23 25 23 25 19 19 19 18 20 32 40 49 57 58 59 60 58 57 55 55 52 46 43 44 46 46 50 53 55 57 58 50 51 51 46 47 56 54 51 54 37 25 21 18 16
23 26 26 25 30 32 30 23 18 20 26 33 44 57 66 64 53 49 49 54 55 56 52 48 43 41 42 49 45 54 70 72 64 60 60 60 58 57 51 52 46 42 39 34 26 22 18 16 16
18 20 21 24 26 24 21 23 25 33 47 56 71 66 70 66 63 66 64 59 54 49 43 37 38 45 52 64 71 68 89 63 72 69 64 54 49 50 47 40 37 29 25 24 22 20 17 17 15
17 18 18 18 19 19 24 34 39 57 64 69 65 75 71 59 51 50 46 40 36 36 40 47 52 59 73 91 87 74 74 72 64 58 61 53 46 43 34 29 25 23 21 20 19 18 17 16 17
16 18 18 19 19 27 43 68 60 61 62 60 59 58 54 43 35 33 33 36 42 53 68 73 90 99 91 95 90 76 77 68 63 58 59 52 48 34 25 20 19 17 16 15 15 15 15 15 16

GFSSGP_250_rhum_009.txt.gz
RH
46 46 64 56 57 49 44 38 45 46 50 46 43 37 35 52 51 100 87 98 84 61 64 70 91 96 98 85 78 83 80 69 54 44 28 17 18 18 22 19 19 21 15 14 15 22 42 38 64
50 48 46 40 64 52 62 44 40 39 44 34 37 44 52 75 96 55 60 66 63 81 95 100 96 87 95 89 70 57 53 42 26 17 11 13 12 13 17 17 22 26 31 31 33 47 58 54 76
61 76 37 38 65 58 43 31 36 52 62 62 57 85 88 89 68 100 100 100 100 100 100 94 93 86 83 82 47 25 14 10 10 10 13 17 19 23 26 35 37 41 48 47 49 68 80 92 90
82 97 75 74 100 82 81 99 99 83 90 72 68 60 60 68 71 76 99 100 87 82 95 83 78 69 45 14 9 10 10 15 20 23 28 30 30 32 27 29 32 32 37 37 37 30 27 38 61
80 66 86 91 89 77 98 100 83 68 78 96 100 100 94 100 97 100 100 85 81 80 84 79 62 36 8 8 9 12 15 20 24 24 23 21 23 27 31 34 40 44 49 49 47 46 43 39 31
97 93 100 98 100 88 86 91 73 86 97 99 100 100 99 100 100 97 90 94 87 83 73 39 17 8 9 11 14 18 19 19 22 22 22 22 26 28 30 34 42 48 54 58 55 50 43 42 35
95 92 88 85 88 91 83 86 100 95 88 94 100 95 98 82 79 89 98 89 77 62 28 10 10 12 14 17 16 17 20 25 29 30 33 31 30 32 37 41 46 48 53 62 62 59 57 41 37
100 100 94 96 49 57 100 76 100 94 100 91 65 75 67 65 90 84 75 47 20 10 12 13 18 20 23 24 25 29 29 28 31 35 34 36 36 40 44 46 48 42 38 36 49 61 63 64 50
100 91 96 80 97 100 99 97 86 78 82 94 90 74 82 69 53 33 16 10 10 13 20 24 23 23 21 21 22 24 26 29 36 37 43 44 40 43 49 48 50 58 73 57 43 39 44 53 57
100 79 88 97 92 97 100 89 84 70 80 95 88 69 50 28 17 11 11 16 21 25 23 21 21 21 22 24 27 33 35 38 39 44 45 45 52 51 43 39 38 37 41 49 61 59 56 42 35
89 87 76 82 90 75 74 69 72 82 75 65 53 26 12 10 10 13 18 23 22 20 22 21 24 26 29 31 32 34 36 40 45 47 48 46 52 56 54 50 51 52 49 42 40 55 53 70 79
93 86 77 84 73 81 86 75 60 52 42 16 10 9 10 13 18 23 25 23 20 21 21 21 28 35 40 40 43 39 37 39 43 44 44 49 49 49 53 55 51 49 50 53 55 46 47 59 57
62 62 62 58 55 54 51 44 38 35 15 10 10 15 19 23 23 21 25 24 25 26 37 52 62 64 60 57 58 60 60 54 49 50 49 48 46 44 49 55 57 58 58 56 59 60 60 50 47
55 47 42 41 38 37 33 22 20 12 10 15 20 26 24 22 21 24 22 21 35 66 65 76 70 68 63 59 56 48 45 45 43 40 36 33 34 38 44 43 37 38 40 40 37 35 41 47 46
38 29 29 27 25 17 10 10 11 15 21 25 20 20 21 21 25 23 31 38 38 64 36 33 37 47 51 49 40 34 31 29 29 31 31 35 40 42 42 43 37 34 36 38 37 38 38 37 39
22 19 14 11 11 12 14 14 20 25 25 21 25 28 37 40 55 53 52 55 54 52 43 34 29 28 27 26 28 31 30 35 43 45 46 51 50 54 56 56 52 49 44 39 33 29 28 29 31
10 10 11 12 15 18 18 26 27 29 36 31 34 48 52 37 26 27 40 39 34 34 31 28 26 25 26 26 28 37 48 56 59 61 67 83 93 97 93 76 63 54 49 44 43 43 40 40 40
12 13 16 19 23 25 26 28 36 37 38 42 36 33 32 30 25 29 26 26 27 30 28 24 23 23 26 25 27 39 53 40 39 40 42 46 45 45 45 44 45 46 49 52 55 58 57 55 48
15 19 21 24 28 27 28 34 37 37 25 18 17 17 20 25 25 21 21 21 24 24 24 22 20 21 25 26 40 45 43 41 42 49 50 53 50 51 56 66 80 88 89 78 71 64 61 61 62
16 18 22 23 25 28 29 29 30 24 21 20 18 20 28 32 30 26 21 23 24 23 23 21 22 30 36 52 49 47 49 52 63 79 91 84 82 87 100 98 81 70 64 51 50 49 47 44 46
19 20 20 18 17 16 19 20 22 22 21 22 25 31 34 31 26 25 24 25 28 26 32 37 45 53 54 52 54 68 77 80 77 75 79 86 81 72 74 71 68 63 57 50 48 50 47 41 40
20 17 17 17 17 16 17 20 22 28 33 32 32 39 37 35 34 27 24 26 26 31 46 65 67 62 73 86 78 69 60 55 58 59 64 61 58 62 67 54 52 56 56 59 58 52 49 54 54
18 17 18 17 18 19 20 21 31 27 31 33 34 32 32 30 27 21 22 32 50 70 80 80 76 76 75 65 58 54 52 51 50 49 51 58 60 50 44 40 42 60 69 66 64 61 61 56 53
18 19 20 19 19 22 24 23 25 24 24 24 22 21 20 20 26 37 52 68 78 78 67 62 57 54 54 53 52 50 50 51 60 61 58 54 46 44 50 63 68 81 78 68 65 62 56 52 44
19 20 22 25 26 24 21 21 21 19 19 18 19 22 25 40 52 68 73 72 70 68 61 52 50 47 44 44 52 59 64 60 57 54 48 48 59 71 85 74 70 75 84 80 72 67 58 47 35
19 18 17 19 24 22 21 20 21 20 18 22 31 37 55 64 64 58 61 65 60 47 38 38 42 47 52 54 50 47 49 51 55 59 67 73 73 72 68 63 68 65 61 52 46 38 39 33 28
20 17 17 19 20 20 22 23 22 18 24 38 52 63 67 63 54 46 53 62 43 39 35 39 42 42 47 45 48 59 63 73 75 85 92 92 81 76 72 65 54 45 40 27 20 17 17 18 18
19 16 16 17 17 18 19 19 17 26 43 60 65 65 61 49 47 64 58 47 52 44 38 42 49 48 59 70 69 83 96 91 92 100 98 90 84 67 64 53 34 24 19 15 14 14 13 13 14
18 16 15 16 16 17 18 23 30 47 59 76 71 58 56 61 57 56 56 57 51 39 44 52 71 87 85 97 100 100 99 91 91 83 81 74 61 46 36 29 22 15 13 12 10 10 9 9 9
19 18 18 19 23 31 44 44 58 62 67 64 64 62 61 56 51 48 41 40 44 51 62 82 94 100 100 100 100 99 99 98 88 78 61 53 44 28 19 14 12 10 9 8 7 7 7 7 8

GFSSGP_250_rhum_012.txt.gz
RH
89 94 99 100 84 70 62 56 49 41 33 34 36 41 42 40 32 34 27 33 40 49 44 64 72 69 82 87 86 100 92 93 98 89 46 33 13 9 10 11 13 25 25 25 15 17 22 16 27
58 77 98 96 81 75 62 54 48 39 35 30 27 26 38 32 26 27 30 45 48 63 83 96 98 100 100 100 100 100 100 96 66 30 13 8 9 11 13 18 22 27 23 28 34 33 42 40 32
68 68 72 86 80 77 72 62 59 50 40 34 31 29 29 37 65 86 74 59 66 100 91 100 100 100 100 100 100 91 46 18 16 10 10 12 15 17 18 19 21 25 27 29 31 32 33 39 33
59 70 78 71 69 65 56 53 50 44 40 40 41 46 54 66 59 60 73 79 77 78 96 100 99 90 86 76 37 12 10 10 12 13 14 16 16 17 18 19 21 24 25 27 29 32 36 44 44
60 67 64 85 84 59 78 84 65 69 54 62 65 64 72 65 66 74 100 100 100 100 100 100 85 60 50 31 14 10 12 13 15 16 18 18 21 22 21 20 20 22 23 26 33 39 42 42 42
94 81 67 78 96 91 99 92 96 96 75 78 100 87 78 93 100 100 100 98 100 94 100 78 43 19 13 12 13 15 16 16 19 22 25 27 28 28 28 32 35 36 34 32 32 44 54 52 51
81 78 66 46 58 100 100 98 77 72 76 67 63 61 72 95 100 100 98 100 99 86 61 30 12 11 12 16 18 20 23 23 23 25 28 30 34 32 29 31 34 39 40 40 44 39 42 47 55
100 69 100 88 66 83 76 69 64 65 72 85 96 100 100 100 100 93 95 87 72 32 19 11 14 16 18 19 20 21 23 29 31 33 34 30 36 37 37 37 35 33 31 31 35 39 40 40 43
100 94 100 67 100 100 100 96 100 89 100 100 99 90 100 98 99 88 64 50 22 16 14 18 18 18 19 23 25 27 30 33 35 35 32 33 33 34 39 46 45 38 34 32 29 30 37 45 36
100 100 95 83 100 73 81 95 80 97 100 100 100 100 82 68 58 41 23 19 14 17 18 20 20 23 27 30 34 35 34 33 35 37 40 42 47 50 48 46 44 48 46 40 34 29 30 36 37
99 100 97 100 95 79 66 100 98 100 100 100 98 65 50 40 26 14 13 14 17 18 18 20 26 38 39 44 48 46 42 39 35 36 36 38 41 39 37 43 48 48 46 48 49 42 35 36 38
99 100 100 95 94 100 93 100 97 92 92 74 64 46 22 13 12 13 16 20 19 18 21 24 33 35 36 34 32 32 34 33 30 28 27 27 29 32 36 42 46 51 50 42 39 40 43 37 37
89 88 87 73 87 94 92 92 82 77 60 55 24 18 13 14 16 16 18 21 24 23 22 34 37 36 32 31 31 26 25 26 26 25 25 28 30 35 40 46 50 56 60 56 45 41 40 40 38
60 66 74 74 77 67 66 67 55 46 22 13 13 15 16 17 20 20 24 24 23 22 20 21 38 40 32 31 28 28 28 25 25 27 35 47 49 53 55 49 38 38 42 43 46 47 48 49 44
44 51 58 48 47 40 34 26 24 12 14 16 16 23 19 20 22 25 31 30 26 32 38 36 37 34 29 25 23 22 24 26 26 34 46 63 59 46 40 40 40 41 41 42 40 37 36 36 38
22 23 23 23 24 19 15 13 15 18 22 20 22 23 22 22 32 40 36 30 25 23 22 21 20 24 25 22 21 21 23 28 34 45 60 59 57 60 66 68 66 66 64 60 57 57 54 50 46
13 13 12 10 10 10 12 14 18 23 25 24 27 31 37 34 30 30 22 19 18 16 16 16 19 18 19 20 22 25 32 46 66 70 69 63 62 63 67 66 61 55 52 52 53 51 53 58 60
12 11 11 11 12 12 17 18 22 23 30 37 35 28 22 17 16 16 16 16 16 16 20 24 25 26 29 33 40 48 55 59 65 64 66 65 60 53 48 44 46 52 52 56 56 61 68 72 85
12 12 12 13 14 18 22 25 30 33 32 31 34 31 21 18 19 23 20 26 25 25 27 26 27 28 32 40 51 54 58 60 59 58 58 55 52 49 50 59 64 67 68 81 82 74 64 64 63
13 14 15 18 19 24 35 31 30 30 31 26 22 22 21 22 24 30 31 31 30 29 24 26 39 55 58 57 66 68 63 58 54 52 52 52 56 61 63 70 73 72 66 67 71 68 66 68 72
15 16 18 18 20 23 24 21 21 20 21 20 22 25 27 30 34 29 29 29 25 26 43 60 59 57 64 69 66 56 47 48 51 51 56 61 60 53 52 51 52 59 66 72 86 91 89 85 83
16 16 16 16 16 16 16 19 20 20 20 23 26 30 29 23 20 20 19 20 39 47 55 56 69 76 67 52 42 41 46 52 52 55 54 49 45 52 72 79 82 82 86 89 89 99 99 96 93
18 17 18 18 19 17 17 18 21 22 21 25 27 24 24 21 21 27 38 51 59 63 71 82 80 59 50 44 40 39 46 50 55 48 43 44 58 68 86 78 68 71 78 79 80 82 86 78 70
21 20 18 18 19 19 19 22 30 21 21 23 22 24 22 23 36 49 64 71 71 77 92 90 70 51 50 52 44 48 48 44 40 41 60 71 79 71 95 96 95 97 80 76 75 80 76 68 58
23 19 17 18 19 20 20 23 20 21 21 22 27 23 24 38 58 64 76 75 73 88 80 78 57 52 50 47 44 47 50 56 76 73 82 86 96 100 100 92 92 93 83 76 64 59 58 54 44
39 28 18 18 18 18 20 25 25 22 22 21 19 23 37 59 67 66 56 58 65 68 68 59 47 48 51 55 57 60 73 90 87 100 100 100 100 99 84 85 82 73 71 56 40 30 26 24 20
27 34 21 18 18 18 19 20 19 17 17 19 23 34 55 67 74 70 60 54 52 58 52 53 57 54 62 71 81 87 94 90 91 100 100 100 99 92 90 72 62 54 34 24 18 14 14 14 13
26 28 26 19 15 16 17 18 16 18 22 32 44 62 67 63 51 47 47 48 51 49 48 48 45 57 77 80 84 97 100 100 100 100 100 91 93 85 76 70 56 30 17 15 12 11 10 9 9
23 21 20 18 17 16 18 24 24 39 47 58 66 62 52 42 43 50 57 55 51 58 56 56 68 71 74 98 100 100 100 98 100 100 95 97 93 85 63 48 18 14 13 11 9 7 6 6 6
32 32 32 32 37 37 39 58 69 50 70 69 61 56 52 55 62 64 56 48 50 54 64 76 79 99 100 100 100 100 100 100 100 98 97 78 56 44 32 15 13 12 9 7 6 6 6 6 7

GFSSGP_250_rhum_015.txt.gz
RH
100 85 77 93 79 99 96 100 100 100 100 100 93 76 65 60 49 46 33 34 33 22 24 27 34 38 69 92 86 100 100 100 100 98 72 51 30 28 18 11 10 10 13 14 17 19 19 23 27
96 96 96 80 99 86 77 98 92 100 96 97 93 84 66 54 48 48 33 26 23 25 37 41 53 84 92 100 100 99 100 100 82 58 38 18 12 11 10 11 13 14 16 16 17 19 22 23 28
95 94 100 96 84 75 76 72 80 82 82 78 78 69 58 49 38 33 27 37 36 45 56 83 97 100 100 100 100 96 86 69 46 19 10 11 11 11 14 14 15 16 18 20 21 23 25 27 28
98 100 100 100 91 77 73 74 75 68 67 64 64 57 43 41 28 26 39 45 80 88 100 100 96 100 100 87 87 81 48 25 12 11 11 14 14 15 17 18 19 19 20 19 19 19 22 27 32
100 100 100 92 74 78 83 78 71 66 71 62 63 47 32 27 28 50 64 100 78 78 94 100 100 100 86 82 68 28 14 9 11 14 16 17 17 18 18 18 19 20 19 19 18 22 24 27 32
99 100 86 96 76 86 81 73 57 51 60 58 50 37 49 29 38 67 81 79 98 100 100 100 100 83 66 38 15 13 12 14 15 16 17 19 19 19 20 22 25 28 27 23 21 20 19 21 22
100 100 98 74 75 100 98 69 63 57 60 50 46 30 41 45 85 90 100 100 100 100 100 91 68 49 31 17 12 13 15 16 17 18 19 22 23 23 25 30 31 33 36 35 32 28 27 27 25
100 100 100 100 100 97 100 100 100 82 55 39 98 81 100 100 100 100 100 98 100 96 85 77 44 24 15 15 17 20 21 19 18 18 20 22 26 30 36 38 37 36 38 40 37 34 32 30 32
100 100 100 100 97 100 100 100 81 87 93 86 100 100 100 100 100 100 97 100 99 85 63 35 19 15 17 18 21 25 30 30 28 29 30 30 30 32 36 32 29 31 34 41 45 46 45 41 38
100 100 100 100 100 100 100 100 86 85 100 98 88 100 100 100 100 100 100 93 82 51 28 15 15 19 23 28 41 42 37 33 30 26 24 23 22 22 22 24 26 30 34 34 36 42 45 48 47
100 100 100 100 100 100 100 100 100 90 100 100 100 100 100 100 100 98 86 71 32 18 16 16 18 22 30 38 33 28 24 23 21 20 20 21 21 22 25 31 35 38 36 32 41 42 42 43 44
100 100 100 100 100 100 100 100 94 100 100 98 100 100 100 100 97 77 31 19 16 17 22 21 23 26 28 31 27 25 24 22 20 20 18 19 21 24 26 31 28 34 40 39 35 36 38 37 41
100 100 100 100 100 100 100 100 93 100 100 100 96 99 94 68 34 20 16 15 18 23 25 23 23 23 24 21 24 25 24 22 19 18 22 25 24 28 37 42 47 46 46 46 45 46 46 45 44
97 100 100 100 98 98 94 95 86 92 90 82 66 34 25 16 14 14 15 18 18 25 24 23 23 23 21 19 20 19 20 19 19 21 23 25 28 35 46 56 59 62 61 60 60 58 54 51 49
38 46 48 51 65 54 62 60 69 58 41 28 20 13 13 16 15 15 14 17 16 17 20 21 21 16 15 17 17 21 20 22 24 26 28 34 49 66 77 78 78 78 76 75 76 75 68 61 56
37 34 28 29 28 36 33 30 26 28 22 17 14 16 19 17 18 16 17 20 20 17 15 14 15 16 18 21 28 29 29 33 38 40 44 54 60 73 84 84 77 70 66 70 63 58 63 66 67
36 29 26 23 22 18 14 12 12 14 16 17 22 20 19 16 22 26 21 17 16 16 17 18 19 21 24 27 29 29 41 49 53 58 66 68 74 80 77 64 54 52 51 50 51 59 61 57 58
16 13 12 12 12 12 11 12 14 14 18 21 21 19 20 26 29 24 20 17 21 20 21 22 25 27 24 25 43 57 56 58 65 62 65 57 46 40 38 38 42 49 55 58 63 73 74 83 96
13 12 12 12 12 12 14 16 20 21 23 23 22 26 25 22 19 19 19 21 27 26 26 26 23 26 43 48 48 51 53 58 61 50 38 35 36 40 42 44 49 46 42 45 60 67 83 99 93
14 13 12 13 17 23 29 28 27 26 26 23 25 26 21 19 19 21 25 25 21 21 20 24 43 46 45 47 52 62 66 56 45 41 43 43 42 45 46 47 44 45 52 55 57 62 71 85 79
15 14 14 15 19 22 25 26 27 33 30 24 22 20 18 19 24 24 22 22 22 28 43 53 56 58 55 53 65 62 53 40 41 43 43 45 46 46 52 60 57 56 54 58 60 86 90 84 98
16 15 15 15 18 21 24 21 26 22 18 18 19 19 19 21 22 22 23 23 32 47 60 65 68 64 66 68 62 67 50 44 47 51 54 59 65 73 79 81 74 72 75 76 97 100 100 95 89
18 18 18 18 18 17 20 18 15 19 18 17 18 19 21 22 23 29 24 29 54 68 70 70 66 68 64 65 60 51 48 44 44 62 74 85 94 100 94 68 73 98 99 99 85 84 93 84 77
21 20 20 19 16 15 16 17 14 21 16 18 19 21 24 26 29 25 23 40 65 74 73 69 67 54 51 53 52 48 50 56 69 76 84 87 87 85 90 100 100 100 96 100 97 100 95 72 70
41 39 25 21 19 16 17 17 15 20 18 17 20 23 24 23 22 23 32 52 71 76 72 74 69 56 54 55 53 55 63 72 81 89 99 100 97 100 100 100 98 91 95 96 90 79 72 68 50
29 30 36 40 22 18 18 17 17 16 18 21 22 23 23 22 25 34 54 73 74 66 53 50 50 55 48 46 53 66 75 86 96 99 100 100 100 100 100 91 99 99 96 80 73 70 63 47 44
22 26 30 28 35 23 19 19 16 18 19 20 20 20 27 41 58 67 66 56 51 45 47 48 46 51 59 65 70 88 96 92 97 99 95 100 99 98 76 68 77 82 80 59 46 35 27 19 13
26 23 22 23 25 26 24 24 16 18 17 20 26 46 64 72 65 54 50 46 44 49 50 45 52 63 75 94 100 78 59 67 90 100 100 100 91 73 69 68 60 48 42 34 27 20 12 11 10
39 39 36 34 35 30 31 52 37 31 37 45 54 62 65 62 47 37 40 44 42 44 46 57 72 95 100 90 73 69 96 100 100 91 68 62 69 60 60 44 36 25 17 13 12 11 9 7 6
44 44 45 47 50 50 45 58 48 44 44 59 59 56 51 44 43 42 43 44 47 52 61 83 100 88 79 78 97 100 100 100 86 86 64 62 54 44 28 19 15 13 12 11 8 6 6 6 6

GFSSGP_250_rhum_021.txt.gz
RH
100 100 100 100 100 100 100 98 86 87 87 88 98 95 84 72 77 70 61 64 80 65 71 58 57 56 54 42 28 27 28 42 59 69 76 86 95 100 78 51 24 11 10 11 12 14 14 14 14
100 100 100 100 100 100 100 97 100 100 100 100 100 100 100 96 89 65 66 66 55 55 51 53 60 59 58 34 30 27 51 69 66 88 85 100 89 73 43 14 10 11 14 15 16 16 17 18 18
100 100 100 100 100 100 100 100 100 100 100 97 91 100 100 100 89 80 88 83 65 64 73 77 66 55 43 29 28 52 64 82 93 97 95 88 66 42 12 12 12 14 14 14 14 15 16 17 17
100 100 100 100 100 100 100 100 100 100 100 100 96 100 100 100 100 88 98 77 81 80 76 68 60 54 36 35 51 94 100 100 100 83 93 64 33 11 12 15 14 13 14 14 14 14 15 17 20
100 100 100 100 100 95 90 96 100 100 97 100 100 100 97 100 92 78 76 62 67 71 57 43 60 60 56 82 100 100 100 97 95 79 59 24 10 13 14 14 14 14 13 13 14 14 15 15 18
100 100 100 100 100 100 100 100 95 96 84 98 100 97 89 76 80 75 67 72 71 58 59 87 91 96 100 100 100 100 97 93 79 56 22 10 13 15 15 15 15 15 15 15 14 15 16 17 18
100 100 100 100 100 100 100 100 100 100 100 89 100 100 86 82 73 72 77 76 80 90 100 100 100 100 100 100 100 93 94 77 50 19 14 17 18 20 20 18 17 15 15 15 15 19 19 21 23
100 100 100 100 100 100 100 100 100 100 100 100 100 100 100 94 97 100 94 95 95 100 100 100 100 100 100 100 97 88 75 41 16 19 20 21 21 20 19 18 16 15 15 14 14 19 21 23 26
100 100 100 100 100 100 100 100 100 88 83 96 100 86 68 82 74 74 91 100 100 100 100 100 100 100 100 96 91 75 42 19 16 19 24 24 22 21 19 20 18 16 16 15 16 19 24 26 29
100 100 100 100 100 99 100 100 100 100 100 100 99 89 100 100 100 100 100 100 100 100 100 100 100 99 93 84 60 26 20 22 23 22 25 24 21 19 18 17 17 16 16 17 20 22 25 30 33
100 100 100 97 100 95 94 100 100 100 100 100 94 100 98 100 100 100 100 100 100 100 100 100 100 93 79 37 22 23 22 21 22 19 20 18 15 15 15 15 14 17 18 20 27 30 31 33 33
100 100 100 96 97 100 89 99 100 100 100 99 99 100 100 100 100 100 100 100 100 100 100 98 86 58 42 72 82 83 44 23 19 20 18 16 13 14 15 16 20 24 30 30 34 36 41 43 46
100 100 100 100 100 100 100 100 100 100 100 100 100 100 100 100 100 100 100 100 100 100 96 78 47 26 47 100 100 100 100 77 14 13 14 15 17 18 19 21 22 23 27 34 43 43 41 37 34
100 100 100 100 99 100 100 100 100 100 100 100 100 100 100 100 100 99 100 100 100 89 60 33 42 89 48 100 100 100 99 41 21 18 20 21 20 20 29 30 34 38 40 42 42 39 36 37 37
91 85 94 100 100 100 100 100 100 100 100 100 100 100 100 98 97 96 96 92 82 59 36 56 86 100 94 100 97 100 41 22 20 20 20 23 30 34 42 40 45 48 38 30 31 34 34 38 43
60 91 76 76 100 99 98 100 76 70 68 84 72 62 69 72 59 73 48 44 28 21 19 19 17 68 88 59 81 51 28 26 19 26 35 44 50 50 41 38 34 44 45 37 38 38 39 41 47
45 42 37 34 33 30 32 27 28 30 39 47 51 56 46 42 32 32 32 25 18 17 16 18 22 76 83 68 46 37 23 22 33 38 39 42 44 43 43 49 48 57 50 43 45 46 46 49 52
30 31 33 38 36 38 42 49 50 52 56 47 38 36 22 18 18 21 26 18 18 19 18 20 41 45 28 20 22 22 26 30 40 40 40 36 40 40 43 42 43 43 44 43 47 52 56 61 64
60 62 55 50 38 38 38 35 30 32 30 25 19 14 16 18 18 18 19 20 16 16 18 19 21 19 20 22 22 22 28 38 42 42 44 46 45 46 44 40 43 47 45 47 48 54 62 68 66
59 43 28 32 25 20 16 16 14 16 14 15 14 15 17 16 20 27 21 15 17 17 18 20 20 20 20 24 20 20 26 36 43 47 42 43 45 46 38 41 45 44 43 48 52 51 40 38 45
18 17 15 14 13 14 14 12 15 18 13 16 19 16 14 15 16 16 15 17 17 18 19 21 22 21 22 20 20 30 44 54 51 48 46 47 46 42 41 41 39 36 39 43 43 44 47 50 49
16 15 15 14 14 14 15 14 14 20 17 15 17 18 17 18 19 20 19 18 19 20 20 21 21 22 21 24 49 57 50 45 46 46 46 42 40 40 38 36 40 45 47 53 54 53 53 52 58
19 18 18 18 17 16 16 15 16 18 23 24 20 16 17 18 18 20 22 21 22 23 24 21 19 20 25 70 72 56 48 47 43 44 47 48 52 55 52 50 56 58 64 56 53 58 60 57 57
29 29 29 28 25 23 22 21 19 19 19 21 25 22 20 19 18 17 17 18 20 20 20 19 22 40 57 67 55 50 48 50 62 65 64 61 59 49 51 58 62 65 55 57 56 55 55 52 48
18 19 23 23 33 34 39 30 22 26 23 18 18 22 20 21 19 18 17 16 18 23 37 59 80 82 59 47 43 44 43 41 39 41 42 43 43 50 75 84 63 56 56 53 54 52 43 39 29
35 37 38 34 31 29 25 31 33 35 25 20 18 16 18 18 20 20 28 36 37 40 42 42 42 43 46 50 51 48 41 45 45 46 68 77 78 76 76 59 60 58 57 51 42 35 26 17 15
58 60 57 58 58 58 45 54 62 64 54 44 31 27 31 37 32 45 44 49 48 48 44 42 44 46 53 58 55 56 56 59 87 96 92 80 72 71 63 60 52 45 36 28 21 18 14 12 12
42 43 45 49 49 50 45 47 50 56 55 65 62 69 61 53 53 48 50 47 46 45 46 47 51 54 45 48 53 59 70 70 74 82 85 77 72 65 57 57 44 30 18 14 12 11 10 10 8
37 38 43 42 44 45 53 41 33 31 36 40 44 50 57 56 56 49 37 34 40 44 52 55 55 51 53 61 71 78 81 79 84 86 76 61 56 55 52 32 20 12 10 10 9 8 7 5 4
43 46 43 43 40 42 45 60 43 35 32 29 27 32 44 50 45 38 40 53 66 65 48 42 47 63 78 77 77 84 87 92 78 66 56 58 56 45 32 16 11 9 9 9 7 5 4 4 4

GFSSGP_250_rhum_024.txt.gz
RH
100 100 100 100 100 100 99 95 94 90 90 78 73 65 70 71 73 88 88 86 81 70 64 70 76 71 69 59 62 54 49 44 36 32 40 59 72 91 77 75 72 54 25 10 11 12 13 14 15
100 100 100 100 100 100 100 98 95 86 98 100 100 100 97 98 98 93 87 79 76 77 86 90 76 72 67 56 52 48 42 36 35 52 58 92 79 92 86 71 49 19 11 12 13 14 14 14 15
100 100 100 100 100 100 100 86 100 100 100 100 100 100 100 100 95 94 88 85 87 90 93 88 82 63 55 57 54 52 41 46 73 92 98 89 93 87 70 46 19 12 13 14 14 14 13 14 15
100 100 100 100 100 100 100 100 100 100 100 100 100 100 95 83 85 81 88 85 88 92 79 93 66 58 52 55 60 61 72 100 100 100 100 98 95 78 56 23 12 15 14 13 13 12 12 12 12
100 100 100 100 100 100 100 100 100 100 100 100 100 100 100 100 95 97 100 98 91 100 99 87 55 45 61 74 80 100 100 99 89 100 99 97 81 64 29 11 13 14 13 13 14 13 12 12 12
100 100 100 100 100 100 100 100 100 100 100 100 100 100 100 100 100 100 100 100 100 91 77 66 59 80 99 100 100 99 100 100 98 97 98 88 63 30 15 17 16 18 17 16 14 13 13 12 13
100 100 100 100 100 100 100 100 100 100 100 100 100 100 100 100 100 100 92 82 83 74 80 92 100 90 100 100 98 100 99 100 99 97 85 63 30 21 22 22 20 18 18 17 17 15 14 14 13
100 100 100 100 100 100 100 100 100 100 100 100 95 92 97 95 99 96 82 86 78 83 92 100 100 100 100 100 100 100 100 100 100 88 65 38 18 19 21 23 22 21 18 17 16 15 15 16 16
100 100 100 100 100 100 100 100 100 100 100 100 100 96 100 100 98 100 100 97 87 100 100 100 100 100 100 100 100 100 99 99 81 71 57 36 24 21 18 20 18 15 15 15 16 16 16 17 18
100 100 100 100 100 100 100 100 100 100 96 94 92 100 100 100 100 86 100 94 100 100 100 100 98 100 100 100 100 100 97 82 86 85 71 36 23 19 18 18 16 14 14 14 16 17 19 21 24
100 100 100 100 100 100 100 97 99 100 100 100 98 98 93 100 100 100 100 100 100 100 100 100 100 100 100 100 100 98 80 100 100 100 99 98 83 37 16 15 14 17 19 20 23 27 32 37 36
100 100 100 100 100 100 100 100 100 100 100 99 100 95 99 100 100 100 100 100 100 100 100 100 100 100 100 100 99 80 78 79 99 100 100 100 54 26 18 18 20 21 22 33 42 44 42 42 38
100 100 100 100 100 100 100 100 100 100 100 100 100 98 96 100 100 100 100 100 100 100 100 100 100 100 100 100 100 100 100 98 100 100 100 78 33 21 20 21 24 31 33 37 42 43 41 38 33
100 100 100 100 100 100 100 100 100 100 100 100 100 100 100 100 100 100 100 100 100 100 100 100 100 99 100 100 100 93 100 100 98 100 98 38 27 21 32 33 33 36 37 36 33 31 35 38 36
100 100 100 100 100 100 100 100 100 100 100 100 100 98 97 100 100 100 99 100 98 100 99 100 86 72 73 89 94 100 100 100 100 73 48 26 22 27 35 38 37 40 40 38 34 37 37 39 44
78 98 100 100 100 100 100 100 100 100 100 100 100 100 100 100 97 72 66 75 93 95 70 45 34 31 30 26 22 32 45 71 50 21 18 21 35 47 51 47 44 41 44 47 47 48 46 47 48
72 70 86 99 95 75 74 87 96 96 85 71 86 90 66 49 51 48 47 50 54 43 32 30 31 35 63 67 43 46 48 24 19 20 20 20 25 34 44 50 59 65 64 59 58 53 43 44 48
46 49 56 57 55 52 50 52 56 52 38 32 36 41 47 53 47 39 36 35 32 26 23 44 36 74 43 31 34 33 24 21 21 22 20 19 25 37 47 46 39 44 47 46 46 48 50 48 46
30 32 33 32 32 32 32 36 41 36 40 38 37 36 36 36 26 26 29 29 25 32 23 24 16 15 16 18 19 21 21 21 22 21 20 40 50 47 40 37 35 31 28 31 34 36 34 33 35
29 33 41 50 54 49 44 38 36 33 28 24 20 20 19 21 20 23 23 24 23 19 15 15 15 16 16 17 18 20 22 21 19 20 33 49 51 42 36 34 34 34 33 32 31 29 29 32 37
60 57 50 47 36 31 25 22 17 16 15 21 24 20 18 16 16 19 20 19 18 19 19 19 18 16 17 20 22 22 20 19 26 48 60 57 46 45 43 39 33 32 33 33 34 36 38 42 45
26 22 19 18 15 16 19 15 16 16 15 14 16 17 18 17 17 17 17 17 17 18 18 18 17 18 19 18 18 19 30 49 58 54 46 42 40 36 32 35 36 37 39 42 43 45 50 51 57
17 18 18 18 19 18 17 17 16 16 17 20 18 18 19 20 20 19 17 17 18 14 15 17 17 17 18 24 45 60 60 53 53 51 48 48 49 58 65 57 55 56 58 59 57 62 67 66 63
29 26 26 24 24 22 20 22 24 24 25 32 43 41 31 27 28 28 34 30 17 21 21 20 29 41 48 48 45 49 64 64 52 48 53 58 55 54 48 50 57 67 71 72 72 67 61 53 47
20 20 22 23 23 25 29 27 32 31 30 31 30 32 32 35 35 42 32 22 34 43 47 53 55 64 64 64 58 50 41 41 41 41 45 52 58 68 83 85 84 68 64 62 55 54 49 42 31
58 56 59 55 53 56 57 52 46 42 38 35 44 57 58 66 65 44 35 44 52 59 58 51 42 42 49 54 53 49 44 52 58 68 82 87 81 62 58 56 56 58 50 50 44 33 24 18 15
45 46 46 46 42 43 44 46 50 49 39 37 40 41 42 43 43 37 35 31 32 38 40 38 40 45 50 52 61 60 54 62 70 61 53 52 55 63 65 54 51 45 34 25 16 13 11 9 8
46 44 48 50 46 39 40 37 40 41 36 37 33 33 31 28 30 35 40 48 56 53 49 46 50 55 48 48 47 51 53 51 55 58 60 63 58 53 52 54 44 36 24 14 9 8 7 7 6
43 42 45 52 53 49 34 33 32 33 34 40 43 45 44 40 37 38 40 43 42 42 42 42 44 49 52 48 49 53 55 57 60 64 62 56 57 53 49 38 30 18 10 8 8 7 6 5 4
43 50 54 43 37 50 53 51 52 50 48 43 42 42 39 39 43 45 46 44 45 52 55 57 57 47 45 54 60 60 60 68 58 52 55 55 50 45 38 29 16 8 7 8 7 5 4 4 3

GFSSGP_250_rhum_027.txt.gz
RH
94 100 100 100 100 100 100 97 93 100 100 100 100 100 98 98 94 93 87 72 66 58 59 74 63 75 63 59 59 65 78 67 44 40 38 38 48 62 62 48 57 72 77 55 46 25 11 10 11
38 90 100 100 100 100 100 100 100 100 100 100 100 100 98 95 100 100 97 81 74 63 84 87 77 74 81 75 75 83 69 59 38 38 52 62 63 56 48 55 71 78 69 55 30 13 12 12 13
22 64 88 100 100 100 100 100 100 100 100 100 100 100 100 100 100 99 92 84 96 95 96 79 80 85 83 71 73 76 66 47 43 64 73 72 64 70 80 81 86 72 62 36 16 12 12 13 12
25 29 95 100 100 96 100 100 100 100 100 100 100 100 100 100 100 100 94 88 100 100 93 83 80 90 82 94 82 74 62 56 66 73 94 76 82 77 73 93 87 68 48 23 13 14 14 14 14
26 25 32 100 100 100 100 100 100 100 100 100 100 100 97 99 92 91 90 83 86 71 72 95 100 83 87 93 73 70 70 66 86 100 93 92 79 85 94 84 74 57 32 18 18 17 16 15 15
25 28 25 89 100 100 100 100 100 100 100 100 100 100 100 96 94 92 99 100 100 100 100 100 84 89 75 82 85 83 80 84 100 98 97 85 94 94 87 73 58 39 27 22 22 20 19 17 16
31 36 31 40 100 100 100 100 100 100 100 100 95 99 100 100 100 100 98 96 97 92 90 97 96 98 95 92 100 98 99 100 82 100 95 92 100 94 80 66 42 26 18 19 21 20 16 14 14
63 52 44 37 72 100 100 100 100 100 100 100 100 100 100 100 100 95 92 92 100 100 92 85 100 100 98 96 89 100 100 96 99 99 100 100 92 84 81 64 50 30 20 17 18 18 15 15 15
100 100 100 72 90 100 100 100 100 100 100 100 100 100 100 100 96 84 70 76 92 100 100 100 100 100 99 98 94 100 100 100 100 100 100 96 94 100 97 84 69 62 53 21 15 15 16 18 22
88 99 100 100 98 100 100 100 100 100 100 100 98 99 99 94 98 99 100 100 100 100 100 100 100 100 100 100 100 100 100 100 100 100 96 86 96 90 90 93 100 74 37 17 18 20 20 22 29
89 98 100 100 100 100 100 100 100 100 100 100 100 96 100 100 100 100 88 97 100 100 100 100 100 100 100 100 100 98 100 100 100 100 93 99 96 89 80 92 82 48 22 19 23 24 25 27 33
84 100 100 100 100 100 100 100 100 100 100 100 100 100 100 100 100 100 100 100 100 100 100 100 100 100 100 100 100 100 100 100 100 100 100 100 99 94 81 73 70 32 23 32 39 39 36 33 32
100 100 100 100 100 100 99 100 100 100 100 100 100 100 100 100 100 100 92 99 100 100 100 100 100 100 100 100 100 100 100 100 100 100 100 100 100 100 100 84 40 21 22 31 38 44 47 40 33
100 100 100 100 100 100 100 100 100 100 100 100 100 100 100 100 97 100 87 98 100 100 100 100 100 100 100 98 100 100 100 100 100 99 81 90 100 100 100 38 20 20 26 32 41 45 50 45 46
93 100 100 100 100 100 100 100 100 100 100 100 100 100 100 100 100 100 100 93 97 99 100 100 89 100 100 100 94 58 74 70 50 65 41 46 50 72 28 19 20 20 20 25 33 42 46 49 54
94 100 100 100 100 100 100 100 100 100 100 100 99 100 100 100 100 100 99 98 67 76 82 88 86 90 96 91 87 89 50 41 34 50 44 41 50 23 19 20 22 20 27 44 50 47 43 38 39
88 90 91 93 95 87 91 100 100 100 100 100 100 100 92 82 100 97 76 67 55 70 83 99 100 100 100 100 100 83 42 59 72 33 30 20 17 18 20 21 22 22 52 61 52 44 40 39 37
73 75 76 77 75 75 75 92 98 96 94 92 93 67 52 48 62 57 48 44 46 51 57 76 98 100 100 100 100 88 41 21 17 17 16 17 18 19 20 21 21 33 54 59 54 49 45 44 45
57 71 77 73 56 50 54 53 50 54 52 48 46 41 41 40 39 37 37 38 40 37 32 51 92 63 85 82 53 21 17 16 16 16 17 18 19 21 22 34 49 54 48 41 41 40 41 43 40
27 28 31 29 28 28 29 32 38 40 44 41 38 34 31 27 24 25 34 39 35 44 47 29 33 27 19 18 17 17 17 17 17 17 18 19 24 38 40 34 31 31 35 37 36 35 34 33 32
24 25 27 32 41 50 55 50 35 31 29 23 19 16 14 18 22 24 27 30 33 30 25 23 21 19 17 17 17 17 16 16 17 21 32 38 35 32 34 36 39 39 33 28 29 30 28 29 33
54 48 48 49 45 37 28 20 16 18 18 17 16 16 16 17 18 19 19 22 22 19 19 17 16 17 17 18 18 18 21 28 34 34 34 34 36 38 37 35 32 32 38 38 37 41 45 44 45
23 24 21 18 17 15 16 17 18 19 19 19 21 21 20 19 19 20 21 21 20 17 15 18 18 16 16 19 26 35 42 44 42 43 50 53 55 56 56 51 42 39 41 43 46 47 47 49 56
18 18 19 19 20 19 19 20 26 26 30 31 30 30 30 29 30 32 29 25 24 23 27 31 30 39 44 49 52 55 52 51 59 69 67 58 52 46 42 45 50 50 50 51 46 48 52 53 44
22 20 18 21 29 30 33 32 36 47 49 51 57 58 58 59 55 50 50 50 46 42 47 61 69 57 57 63 63 56 57 58 54 47 44 49 53 56 56 57 57 53 47 40 40 40 39 34 28
22 36 49 52 49 44 44 43 40 38 39 41 38 38 38 38 42 52 54 52 49 49 53 50 53 72 70 66 64 64 58 60 62 69 72 65 52 49 52 49 45 42 39 37 34 32 27 21 17
58 45 40 39 41 44 44 42 38 36 36 38 40 48 54 56 54 54 55 55 55 57 61 62 60 56 56 58 57 62 65 62 62 55 47 45 48 50 47 42 42 40 36 34 29 25 21 13 8
43 42 41 42 52 56 53 51 48 46 44 42 40 40 38 38 37 40 40 41 43 45 47 48 49 52 56 56 62 56 45 41 41 44 53 55 53 51 47 42 44 40 40 28 21 12 8 6 6
46 45 48 56 53 47 47 40 38 39 40 39 38 39 40 42 43 44 43 41 41 41 41 40 40 42 45 43 42 43 41 45 56 59 53 55 50 44 49 53 48 34 25 14 8 6 6 6 5
54 55 58 55 54 54 44 42 44 40 38 38 38 39 40 46 52 54 52 49 45 40 36 36 39 41 44 41 42 50 64 66 58 55 53 48 55 58 51 39 24 20 11 7 6 6 5 3 3

GFSSGP_250_rhum_030.txt.gz
RH
23 22 22 23 32 100 100 100 100 100 99 94 100 99 100 100 100 100 100 100 100 98 100 100 96 85 66 74 59 39 47 52 60 62 59 58 63 55 47 44 49 56 33 35 39 49 54 56 43
23 27 24 23 25 60 100 100 100 100 100 100 100 100 100 100 100 98 100 100 98 99 95 91 70 61 74 58 48 56 63 77 67 59 72 78 42 55 50 71 60 38 50 47 54 69 62 51 35
19 26 29 24 23 32 99 100 100 100 100 100 100 100 100 100 100 98 88 85 79 85 90 100 90 57 61 49 66 78 73 59 65 75 63 46 72 63 76 64 50 56 66 66 71 65 59 42 24
15 21 32 27 24 29 58 100 100 100 100 100 100 100 100 100 100 100 100 100 100 100 100 94 89 75 65 79 75 70 76 84 90 68 58 61 93 77 60 51 78 69 75 72 82 64 50 39 18
20 22 32 34 27 25 31 59 100 100 100 100 100 100 100 100 100 100 98 99 97 91 81 78 97 80 62 66 92 100 99 90 79 68 71 76 71 62 73 89 76 74 82 86 76 58 41 24 21
17 19 26 33 34 30 28 40 100 100 100 100 100 100 100 100 100 100 100 100 100 87 83 71 72 80 89 100 100 92 96 88 73 80 76 80 71 100 78 89 92 92 89 85 73 58 41 38 32
15 17 20 24 34 34 32 33 46 100 100 100 100 100 100 100 100 100 100 94 79 77 85 98 92 100 93 88 94 89 89 91 100 96 100 100 92 91 100 94 84 85 87 87 70 58 58 48 25
19 20 26 37 44 47 40 42 53 90 100 100 100 100 100 100 100 100 100 100 100 100 98 96 93 98 100 92 80 89 91 100 100 100 100 100 99 100 98 97 87 96 96 86 85 77 51 28 17
36 35 46 57 58 68 60 54 83 87 100 100 100 100 100 100 100 100 100 98 96 100 100 100 100 100 100 98 91 96 100 92 86 97 100 100 100 100 100 92 93 96 93 89 78 72 47 26 20
54 46 52 76 74 100 94 62 100 100 100 100 100 100 100 100 95 85 78 90 100 100 99 98 100 96 86 85 100 97 96 100 100 100 100 100 94 98 95 98 91 87 82 66 74 61 37 21 27
76 63 73 93 100 98 100 100 94 100 100 100 100 99 100 100 100 99 94 100 86 86 98 96 92 97 100 100 100 100 100 100 100 100 100 100 100 100 100 100 98 68 56 79 70 61 24 22 26
82 84 95 100 100 100 100 100 100 100 100 100 100 100 100 99 99 100 100 96 86 92 100 94 100 98 90 100 100 99 97 100 100 100 100 100 100 100 100 86 76 77 75 86 87 27 21 21 28
100 100 99 100 100 100 100 98 100 100 100 100 100 100 100 86 97 98 97 100 87 86 94 100 100 100 100 100 100 100 100 100 100 100 100 100 100 95 87 70 64 45 43 52 81 25 22 21 20
100 97 99 100 100 100 100 100 100 100 100 100 100 100 100 100 100 96 99 100 100 100 100 90 100 100 100 100 100 100 100 100 100 100 96 61 60 57 40 42 50 50 50 62 58 30 23 21 20
100 100 98 100 100 100 100 100 100 100 100 100 100 100 100 100 100 100 100 100 93 84 100 100 99 89 100 100 100 100 100 91 89 85 87 80 79 52 56 72 29 29 32 26 22 22 22 22 21
98 100 100 100 100 100 100 100 100 100 100 100 100 94 93 100 100 77 90 100 99 83 89 84 94 100 99 100 100 100 95 96 84 85 84 92 94 59 38 22 18 20 21 20 20 20 20 21 29
94 96 100 100 100 100 100 100 100 100 100 100 100 98 98 92 98 100 97 88 75 78 76 72 90 100 100 100 100 100 100 100 96 98 98 100 66 31 19 18 20 20 19 19 19 21 25 40 56
95 95 98 100 99 100 100 100 100 100 100 100 95 86 90 93 93 92 74 60 62 55 47 52 70 100 100 100 100 100 100 100 100 82 69 64 25 18 19 19 17 17 17 19 25 41 51 51 46
83 85 85 80 81 83 82 81 89 82 77 72 63 58 63 62 58 52 50 40 37 34 28 69 100 100 100 100 100 100 100 99 62 22 18 17 18 18 17 16 19 27 38 45 43 41 41 41 38
26 28 44 57 68 74 72 69 56 47 40 39 42 43 42 41 39 32 27 19 24 63 78 77 78 88 91 97 83 36 26 22 19 18 18 19 21 26 36 41 40 37 33 32 32 30 31 34 36
34 37 35 29 26 27 25 25 32 45 54 46 36 31 25 21 20 19 24 27 35 35 32 28 27 28 28 24 23 22 19 20 20 20 23 34 42 42 43 40 37 33 29 28 28 29 31 33 34
17 22 32 42 50 48 44 37 30 31 28 24 18 15 15 16 15 16 16 18 18 18 18 19 21 26 34 34 27 22 26 25 32 41 43 43 42 40 39 38 34 30 31 32 32 34 38 44 52
43 47 53 51 41 24 18 18 18 17 17 17 18 19 18 18 19 22 24 27 31 31 30 34 36 44 44 38 39 47 46 45 49 48 38 38 43 39 36 34 34 36 36 46 57 60 57 56 50
38 29 23 20 18 20 21 21 20 22 23 23 24 28 39 44 44 42 41 42 41 41 40 38 40 39 38 36 32 30 33 37 39 40 40 37 38 42 42 47 54 62 63 58 60 57 47 42 38
21 21 24 24 20 23 29 31 32 40 43 41 39 37 35 35 37 38 41 45 45 41 38 37 41 42 41 42 42 43 45 45 44 42 44 47 54 64 67 67 62 60 61 56 48 41 35 32 29
25 21 26 38 42 40 37 36 35 35 35 38 43 48 48 46 44 42 42 43 45 48 50 51 51 48 45 44 44 43 37 38 45 58 69 76 78 74 64 60 59 55 46 43 41 32 29 23 19
34 51 47 38 34 31 38 43 50 52 53 52 48 45 44 45 47 50 50 51 54 49 47 46 46 46 44 41 40 45 56 67 79 76 78 76 62 57 56 54 48 49 41 35 30 22 16 14 11
46 41 38 39 41 47 52 53 50 50 47 43 40 37 37 38 36 36 38 39 43 49 52 52 50 51 54 54 56 62 64 62 60 57 57 56 52 49 49 46 41 38 31 25 20 14 10 8 6
41 41 44 46 53 56 55 53 51 48 42 37 36 37 36 36 37 40 48 58 64 65 66 64 58 54 52 52 54 56 55 53 52 50 49 46 58 53 43 38 35 30 24 17 12 9 7 6 6
50 53 52 54 55 53 55 52 49 42 36 35 39 43 42 45 43 44 49 52 57 61 56 54 50 46 48 50 52 53 51 47 51 54 60 63 47 50 45 38 28 18 14 10 8 7 6 6 5

GFSSGP_250_rhum_033.txt.gz
RH
13 14 14 15 23 24 23 24 41 91 100 100 100 85 80 100 97 88 97 100 100 100 99 97 100 100 100 87 88 84 88 70 64 66 54 38 44 66 63 51 54 49 49 41 54 60 41 66 57
11 11 14 14 22 29 26 25 25 59 100 100 100 100 84 100 100 100 100 100 100 100 100 100 100 100 94 85 78 73 66 63 58 63 46 52 57 71 77 62 53 39 43 81 86 57 75 73 69
9 11 12 16 23 27 31 29 27 30 42 100 100 100 100 100 100 100 100 100 100 100 95 99 96 83 76 62 71 68 67 68 62 44 46 68 88 100 64 56 60 66 59 87 68 86 78 70 71
8 9 10 12 19 21 28 34 31 29 30 47 100 100 100 100 100 100 100 100 96 87 88 100 77 66 67 75 82 78 81 60 56 60 82 98 85 73 70 60 100 86 64 70 78 74 68 77 88
8 9 9 11 12 14 18 30 36 33 32 37 84 100 100 100 100 100 100 100 96 96 87 81 91 98 99 100 95 74 56 56 62 92 93 88 81 86 59 84 90 75 76 73 70 73 84 88 83
10 9 9 10 13 14 19 27 33 35 34 42 36 94 100 100 100 100 100 100 100 100 100 99 100 86 99 92 85 78 67 69 100 89 85 78 78 75 94 96 86 93 86 73 71 91 92 79 69
11 10 12 15 15 20 22 28 34 38 36 40 56 98 100 100 100 100 100 100 100 100 100 87 98 100 96 94 81 65 76 98 97 97 79 93 90 80 88 83 69 73 84 78 88 83 91 82 72
9 10 10 16 18 16 21 27 37 41 43 41 56 100 100 100 100 100 100 100 100 100 100 100 83 68 84 94 96 100 89 100 97 90 76 96 89 100 86 78 80 72 93 84 90 87 81 74 62
16 17 16 21 27 28 26 41 50 48 62 66 82 90 100 100 100 100 100 100 100 93 90 100 89 95 92 99 81 88 100 90 85 94 100 90 100 97 93 94 98 84 100 92 80 87 81 58 52
30 30 34 33 39 54 52 59 65 62 63 80 99 98 100 100 100 100 100 100 100 100 99 100 100 98 100 100 100 100 80 100 96 100 100 100 100 99 100 100 100 100 95 83 80 71 58 53 44
50 51 62 56 72 71 67 83 77 74 66 85 98 100 100 100 100 100 100 100 100 100 100 92 100 91 100 94 83 100 86 84 100 100 100 92 100 100 100 100 100 100 90 81 73 49 35 40 44
62 84 86 75 78 86 75 71 87 89 86 99 100 100 100 100 100 100 100 100 98 100 100 100 100 97 100 100 100 98 100 100 100 100 100 86 98 97 100 100 100 90 74 61 49 43 47 24 35
100 100 96 96 100 100 100 100 100 100 100 100 100 100 100 100 100 100 100 100 92 100 100 98 99 100 98 100 100 100 100 100 100 100 100 100 100 100 100 100 95 83 79 74 50 46 28 18 22
100 96 99 95 100 100 100 100 100 100 100 96 100 100 100 100 100 100 100 81 100 100 100 95 89 100 100 100 95 88 100 100 100 100 100 100 97 92 68 64 68 68 70 68 58 32 19 18 21
100 100 100 100 100 100 98 100 100 100 100 99 89 100 100 100 100 100 100 100 100 97 74 98 100 78 75 92 91 94 100 100 100 76 61 62 60 59 61 57 71 71 75 77 48 20 19 21 20
96 100 100 100 100 100 100 100 100 100 100 100 100 100 100 100 90 88 100 100 84 60 76 100 98 96 100 91 100 100 100 76 59 67 63 62 55 58 90 93 82 43 35 34 24 19 19 19 20
100 100 100 100 100 100 100 100 100 100 100 100 100 100 96 92 100 100 100 86 89 90 95 96 98 84 80 86 100 100 100 100 100 99 100 100 100 100 91 63 66 38 18 18 19 19 24 31 38
100 100 94 92 93 96 100 100 100 100 100 100 100 100 100 98 90 93 93 84 80 81 80 74 62 55 77 81 100 100 100 100 100 100 100 100 100 87 26 21 20 20 20 22 35 46 50 52 53
100 100 100 94 92 94 84 81 83 88 92 91 93 90 92 83 87 80 70 55 52 51 42 44 51 73 100 97 100 100 100 100 100 100 96 98 57 21 23 25 30 36 53 60 58 55 52 46 43
93 92 93 99 95 93 91 88 90 80 79 77 74 69 64 56 50 45 41 35 28 28 32 91 91 77 92 91 63 65 74 89 68 44 30 25 32 37 44 56 64 59 52 47 45 47 47 46 45
71 58 44 34 31 42 53 68 71 60 47 42 39 40 46 45 39 24 20 18 16 17 18 20 29 21 24 26 33 31 26 26 38 49 47 48 48 47 48 44 41 41 42 41 40 38 36 36 34
18 19 23 28 34 38 38 36 31 35 40 47 43 31 19 16 17 19 23 30 34 35 35 39 42 45 48 46 51 54 55 51 45 43 43 42 43 44 43 40 36 35 36 36 35 35 37 42 48
23 24 23 30 47 48 45 42 45 35 22 18 18 19 22 26 31 43 45 46 44 42 40 37 38 37 41 42 41 42 44 44 40 38 39 39 38 36 33 33 36 40 43 50 54 60 62 55 51
22 29 43 47 37 37 31 19 18 19 20 22 26 37 48 48 42 39 39 40 41 41 42 40 39 41 42 40 38 38 41 41 42 41 39 34 32 33 39 45 50 57 62 62 59 59 55 50 46
50 47 34 26 20 20 19 23 32 40 42 43 43 42 43 44 45 45 45 44 44 43 40 38 36 34 36 38 39 38 38 38 36 34 31 32 42 50 60 66 59 60 63 65 59 45 40 36 33
22 19 20 21 22 31 49 48 45 43 44 45 46 48 48 43 39 36 35 34 32 32 37 43 45 46 48 50 46 43 41 37 36 40 50 57 65 66 57 53 60 67 66 53 45 37 27 21 18
27 26 25 39 50 50 44 43 46 49 52 51 48 43 39 35 34 34 34 37 40 42 45 47 49 53 54 52 46 45 46 53 61 61 59 56 53 50 61 68 76 64 56 46 32 21 16 13 11
26 41 47 43 43 42 43 45 48 51 50 47 43 39 37 37 42 42 42 45 47 49 44 46 48 52 53 52 55 58 60 58 51 51 52 50 58 70 73 77 65 63 43 30 21 17 12 9 8
48 44 44 46 46 48 49 51 51 54 50 46 40 40 39 41 43 47 48 50 54 64 72 72 73 70 59 60 64 60 52 48 47 52 56 66 72 74 66 57 57 46 40 28 17 12 9 8 6
48 52 53 54 54 57 57 55 60 56 52 47 47 42 44 51 54 61 68 70 71 76 74 65 55 53 57 57 51 47 44 50 54 62 72 76 78 66 61 69 65 54 33 17 12 10 8 6 6

GFSSGP_250_rhum_036.txt.gz
RH
13 15 16 17 19 16 18 17 18 21 21 23 27 52 90 66 80 82 84 65 84 100 100 100 100 100 100 100 100 100 100 100 92 100 95 60 42 65 73 37 37 45 75 70 37 50 58 38 72
10 12 15 15 18 19 19 17 19 18 25 27 31 42 84 100 98 100 86 73 95 95 100 100 97 98 98 100 100 100 100 100 90 74 63 50 57 59 50 46 45 81 63 70 59 42 52 82 67
8 9 12 15 15 16 16 17 18 22 29 34 32 33 41 76 100 100 95 82 98 100 100 100 98 99 100 100 100 100 91 73 64 55 55 45 47 50 46 47 68 60 73 62 49 86 86 70 60
8 8 10 12 14 15 16 14 15 16 19 33 34 34 33 55 100 100 100 100 85 94 90 95 93 98 97 79 74 84 68 56 46 49 52 59 57 67 64 77 80 73 57 50 73 86 84 61 62
9 8 10 10 11 11 12 13 13 16 22 32 35 38 60 44 42 99 100 100 94 91 92 81 76 69 76 85 75 57 55 69 68 69 73 72 77 73 75 78 75 57 54 90 96 91 66 68 74
12 10 10 10 10 10 10 12 11 13 15 21 33 39 39 43 55 63 100 100 100 100 94 97 97 91 60 79 90 94 93 93 98 90 92 65 84 90 69 54 70 88 100 95 86 85 71 92 96
11 11 10 11 10 10 10 10 10 12 16 23 36 42 42 42 38 51 100 100 100 100 100 100 100 100 91 100 100 85 100 100 100 83 77 99 86 95 84 100 100 99 94 84 87 86 96 94 92
10 9 10 12 11 10 11 11 13 14 24 38 47 52 43 44 54 84 95 100 100 100 100 100 99 92 74 93 85 100 76 93 87 80 93 100 93 100 97 100 100 99 87 89 100 100 100 97 90
15 17 12 14 13 13 14 19 22 28 32 44 48 53 55 66 100 91 100 100 100 100 100 100 81 72 100 93 72 86 97 100 90 96 100 98 95 100 100 100 98 89 91 100 99 100 89 93 76
32 29 22 33 32 27 27 31 30 28 36 48 51 60 80 100 100 100 100 100 100 100 100 100 100 100 100 100 97 100 100 100 100 100 100 100 100 100 89 88 80 70 100 100 100 100 98 74 66
43 28 39 52 59 60 41 44 40 49 59 62 68 78 73 100 100 100 100 100 100 100 100 100 100 100 100 100 98 100 100 100 100 100 100 100 100 89 79 71 70 92 100 100 100 100 93 85 68
76 83 88 91 73 74 73 70 63 72 83 74 81 90 84 95 100 100 100 100 100 100 100 100 100 100 92 100 100 100 100 100 100 100 100 97 93 87 76 65 68 76 95 89 76 77 79 70 59
86 100 100 100 77 95 97 97 100 97 83 95 92 88 100 95 81 98 100 100 100 100 100 100 98 100 100 100 100 100 99 100 100 100 96 88 81 67 77 79 67 72 65 59 57 56 48 53 50
100 100 100 100 100 100 100 96 100 100 100 100 100 100 100 99 100 100 98 100 100 100 96 100 100 100 100 100 87 73 76 97 100 96 95 95 82 71 60 40 33 34 29 38 42 44 56 25 26
100 100 100 93 100 100 100 100 100 100 100 100 100 100 100 100 100 100 100 100 100 100 100 100 100 94 90 75 74 60 75 99 100 98 85 70 56 42 42 45 41 58 71 71 87 83 62 19 19
100 100 94 89 97 100 100 100 100 100 100 100 97 91 75 76 68 81 95 100 100 96 62 66 72 72 74 91 90 100 100 100 100 93 94 100 95 100 100 99 100 100 100 100 78 78 23 23 24
100 100 97 95 100 100 100 100 91 94 100 100 100 100 100 100 100 100 100 100 98 100 92 93 99 100 100 100 93 92 100 99 100 100 100 100 100 100 100 100 100 100 100 100 62 30 35 38 40
100 100 100 100 100 100 100 100 100 100 100 100 100 100 99 95 100 77 87 84 89 94 94 85 70 77 78 94 100 100 99 96 100 100 100 100 100 100 100 100 100 99 54 37 41 45 44 44 49
100 100 100 100 100 100 100 100 100 100 100 100 100 99 100 94 81 79 87 90 77 72 62 63 48 56 100 83 100 100 100 100 100 100 100 100 100 100 100 99 85 50 46 47 46 51 53 53 49
100 100 100 100 100 100 100 100 100 98 92 87 89 88 77 69 75 64 56 52 52 36 27 20 20 57 82 100 100 98 100 66 84 96 100 94 88 92 79 52 44 46 49 51 47 44 46 48 50
100 100 100 98 98 95 90 86 82 78 79 76 74 77 68 48 43 43 34 25 21 18 17 18 19 56 39 33 62 96 79 57 48 55 47 45 44 42 43 45 48 46 43 40 38 43 49 51 47
100 100 97 95 87 65 51 39 47 58 62 57 41 37 40 34 21 18 18 20 30 36 36 33 32 33 36 38 38 37 38 38 40 43 49 54 58 53 46 40 36 35 40 49 51 47 46 52 56
84 59 38 25 24 23 31 40 39 36 39 39 34 20 18 19 23 33 35 32 33 36 37 37 38 39 40 43 42 43 45 51 55 50 40 34 33 34 37 43 50 50 47 48 53 58 63 69 60
22 20 22 24 26 27 31 36 44 34 20 19 20 26 35 34 34 36 39 42 42 40 36 33 33 34 36 37 36 37 38 38 38 41 40 39 40 47 50 50 50 52 52 59 71 81 75 63 64
23 27 52 59 47 44 38 21 20 32 40 38 36 38 41 45 46 44 40 38 36 36 37 39 38 36 36 34 34 36 38 39 38 40 40 45 48 51 55 53 49 60 76 89 76 58 51 47 42
57 50 43 36 27 22 21 31 45 40 38 41 45 49 51 47 41 37 38 39 37 35 36 37 39 43 46 47 53 52 45 40 42 49 49 49 54 52 50 59 68 79 65 57 50 45 37 29 22
32 27 22 22 21 27 43 40 44 47 48 53 52 50 46 41 37 38 40 46 42 41 43 48 58 64 66 74 76 72 65 60 57 55 56 62 51 55 66 65 73 65 61 58 52 44 32 25 17
20 23 24 27 42 43 40 51 58 60 60 57 53 50 44 42 41 42 47 44 60 61 61 64 63 66 69 73 74 71 62 55 52 52 42 47 52 62 62 73 74 77 70 58 46 36 26 17 14
25 28 48 45 41 45 52 60 59 60 60 60 57 54 49 47 43 39 34 42 59 71 73 75 80 78 74 77 65 52 47 47 44 40 47 50 56 61 73 79 86 73 64 51 37 25 16 13 10
56 52 45 48 54 58 60 60 60 60 62 62 62 62 53 46 41 36 40 50 58 59 78 88 87 82 81 81 66 50 49 46 45 49 53 62 72 75 86 89 82 65 52 39 28 17 13 9 9

GFSSGP_250_rhum_039.txt.gz
RH
8 11 9 12 13 15 16 20 17 19 17 18 21 24 22 23 25 36 58 69 82 67 54 41 63 100 91 68 98 100 100 94 95 98 100 99 100 100 99 79 53 40 30 34 43 41 48 51 66
8 8 10 11 12 13 16 15 14 19 23 23 27 25 26 23 23 29 45 66 85 86 86 79 62 94 96 86 82 100 100 96 100 91 93 92 89 78 63 49 38 39 35 37 42 64 58 53 34
8 9 9 9 11 12 12 13 15 19 21 23 23 24 26 23 29 30 48 72 87 100 81 92 96 94 98 82 78 96 98 100 99 96 84 76 67 52 47 39 44 41 37 68 61 61 53 43 62
8 8 9 9 10 9 9 10 14 18 20 21 24 24 25 25 26 32 32 58 77 100 100 100 100 92 87 80 99 90 69 87 75 75 64 61 48 46 49 57 67 58 60 67 67 65 61 71 100
7 8 9 9 9 9 10 9 11 14 16 17 17 19 21 22 23 29 39 44 53 82 94 95 99 100 100 91 70 80 84 74 50 46 50 66 92 96 90 51 67 66 80 90 96 89 98 100 98
8 8 9 10 9 10 10 10 10 10 11 14 16 16 16 16 21 36 47 53 67 77 91 65 89 100 92 88 76 63 58 86 100 100 100 93 85 76 63 69 70 71 71 83 96 98 97 91 85
10 10 9 10 10 10 9 9 8 9 9 10 12 13 13 34 38 72 100 100 100 100 100 100 100 100 100 100 96 90 100 100 100 91 86 77 73 52 65 84 88 87 97 100 98 99 77 80 94
12 14 14 10 9 11 10 10 11 12 10 10 12 14 14 34 44 78 95 100 100 100 100 100 100 100 100 100 100 100 100 90 73 79 87 54 77 100 100 100 100 98 100 92 93 94 92 86 92
16 18 17 16 14 13 18 13 13 15 13 11 12 14 18 32 41 62 85 100 100 100 100 100 100 100 100 93 95 96 99 98 83 93 100 100 100 100 100 100 100 92 96 92 81 83 82 83 93
33 22 18 22 36 89 81 79 20 17 16 20 19 22 26 25 34 50 63 100 100 100 100 100 100 98 100 100 98 80 85 95 100 89 96 100 100 100 100 100 93 96 94 80 72 74 61 50 85
46 48 32 58 35 100 98 68 38 38 44 42 33 36 44 44 57 49 81 100 100 100 100 100 100 100 100 100 100 96 85 91 99 100 100 100 100 100 93 78 94 89 86 72 61 57 44 43 48
68 84 87 75 77 66 95 55 81 79 93 60 78 56 63 65 81 73 85 99 100 100 100 100 100 100 100 100 100 97 92 100 100 94 100 100 94 95 96 71 81 87 75 56 42 36 29 30 28
100 100 100 99 94 87 80 84 89 94 97 90 90 90 83 69 69 86 91 93 100 100 100 100 100 100 100 100 99 100 100 100 100 100 100 96 86 79 84 78 74 63 44 27 22 24 30 40 42
100 100 100 97 100 89 95 98 100 100 99 95 96 93 96 96 95 100 100 89 78 100 100 100 100 100 100 100 100 100 100 100 93 89 88 95 90 94 82 71 64 54 50 37 47 91 100 100 75
100 100 100 99 100 100 98 100 100 94 97 100 100 100 100 100 100 100 100 100 99 100 100 100 100 100 100 99 99 99 89 78 77 82 93 94 88 81 72 69 91 88 72 71 89 100 100 86 100
100 100 100 83 87 93 100 100 100 100 100 100 100 100 100 100 100 100 100 100 100 100 100 100 99 87 84 98 92 79 87 100 100 96 84 72 84 100 100 100 100 100 100 100 100 100 100 100 96
100 100 92 91 100 97 100 100 100 97 100 100 100 100 100 97 97 86 79 90 97 90 83 96 100 100 88 74 77 91 91 94 94 99 100 99 100 100 100 99 100 100 100 100 100 100 98 93 80
100 91 97 91 100 100 100 100 100 99 98 100 100 90 100 100 100 100 100 100 100 97 92 90 82 72 94 100 90 85 91 100 100 100 100 100 93 99 100 84 99 100 100 100 100 100 73 64 70
100 83 89 96 100 97 96 93 100 100 100 100 100 100 100 100 100 100 100 88 67 75 78 82 72 67 59 67 62 71 77 100 100 100 100 100 88 95 100 92 99 100 100 97 99 56 44 43 42
100 98 100 100 100 100 100 100 100 100 100 100 100 100 100 100 81 84 83 71 73 67 61 56 42 33 26 20 32 54 64 54 43 71 99 100 100 89 79 95 69 55 48 41 39 40 42 49 51
91 100 100 100 100 100 100 100 100 100 100 100 100 88 75 77 79 78 79 70 56 44 33 22 19 23 29 32 44 80 98 100 84 51 49 48 46 48 45 43 42 40 39 37 40 50 50 54 56
100 100 100 100 100 100 100 100 90 74 72 77 82 72 73 70 58 43 39 28 21 23 30 30 30 29 29 28 26 27 29 30 31 30 32 34 41 38 36 34 34 33 41 48 46 51 53 50 49
100 100 100 91 98 96 78 81 78 71 36 39 51 46 36 37 36 20 22 34 32 33 33 30 29 29 30 31 30 31 33 35 33 32 29 31 31 35 36 35 43 48 42 46 54 53 48 53 62
90 90 89 92 87 80 64 40 28 35 43 39 36 30 21 20 32 34 34 35 34 33 33 33 32 30 30 33 35 39 41 46 58 71 68 61 52 44 43 44 46 48 53 54 53 54 60 65 58
96 81 59 46 25 20 28 34 44 38 31 24 26 34 37 32 32 36 37 35 35 36 35 34 38 39 45 53 62 68 69 66 69 71 56 52 50 48 49 54 52 48 53 54 55 59 62 60 51
37 25 25 22 30 41 49 42 34 26 30 33 33 33 33 33 38 40 36 38 38 36 35 44 50 51 58 61 75 81 78 76 72 62 59 52 55 57 50 49 50 51 51 56 62 67 62 57 46
32 46 55 53 44 35 26 25 33 41 35 37 40 40 42 46 46 41 42 40 38 34 36 43 53 56 52 60 66 71 71 76 72 71 67 62 66 57 50 51 59 57 59 69 72 69 59 50 43
45 44 43 36 25 27 46 53 45 37 44 48 51 55 55 54 52 48 48 43 39 36 43 53 48 48 61 64 57 69 77 87 80 79 79 77 73 61 58 62 64 68 78 70 72 61 50 42 33
28 28 28 28 33 61 56 48 42 45 53 58 61 66 67 65 62 56 51 47 41 39 44 44 42 48 50 52 56 71 78 90 92 89 83 73 70 64 65 67 70 72 68 71 71 61 52 36 30
25 30 29 45 66 60 55 55 53 59 60 62 63 65 66 66 68 61 58 56 44 41 38 50 56 58 53 52 63 72 91 94 85 80 71 70 66 67 69 74 72 71 79 78 72 50 32 28 20

GFSSGP_250_rhum_042.txt.gz
RH
5 4 6 6 8 10 12 15 12 13 18 20 21 19 18 28 37 34 38 53 77 44 40 44 41 38 47 70 58 54 59 71 82 80 100 100 100 99 91 84 90 77 70 59 52 44 35 35 28
5 5 6 6 8 9 13 10 9 15 14 18 18 22 18 23 22 22 27 41 42 40 38 33 43 64 73 57 73 72 74 62 62 83 99 100 94 92 90 71 73 60 45 40 41 47 35 39 23
6 5 6 6 7 9 12 9 12 13 15 16 16 19 20 22 22 24 49 52 51 51 46 51 62 83 92 100 99 98 77 95 96 79 88 78 97 90 74 72 65 46 43 78 80 62 38 38 38
6 6 7 7 7 8 7 7 12 11 12 12 13 16 18 21 24 25 44 68 82 91 72 68 72 96 100 99 76 63 75 83 100 87 100 98 76 73 60 60 70 100 96 82 56 36 54 66 64
7 6 7 7 8 9 7 9 9 11 11 11 11 13 14 15 18 24 48 66 59 74 57 67 94 86 92 87 90 64 99 100 92 99 96 78 46 70 89 100 100 90 73 50 54 52 89 65 96
8 8 8 8 9 8 8 10 9 10 10 12 19 15 11 10 12 17 24 28 64 99 100 100 100 100 84 67 65 84 100 100 100 86 82 52 54 100 100 100 79 68 54 96 90 91 52 100 100
10 10 9 10 11 9 10 10 9 33 44 43 62 65 33 30 13 12 17 18 26 51 86 100 100 88 96 98 100 100 100 100 100 99 77 96 100 100 92 88 79 38 85 97 87 84 100 100 92
12 11 11 11 11 10 12 14 9 35 51 69 26 15 18 28 26 22 18 22 46 100 100 100 100 96 99 100 100 100 100 100 100 100 100 100 100 99 100 88 100 100 99 80 100 100 91 82 81
14 14 15 12 10 10 14 100 79 74 65 50 14 15 15 16 26 24 42 91 100 100 100 100 99 100 100 100 100 100 100 100 100 100 100 98 98 85 100 100 98 81 91 100 100 92 77 71 67
19 17 17 12 11 24 92 100 100 78 44 18 20 30 17 16 45 33 92 100 100 100 100 100 100 100 100 100 100 100 100 100 100 100 100 100 95 100 100 100 94 100 99 96 89 87 72 57 51
23 25 22 22 18 63 93 100 100 93 72 36 24 19 18 24 59 42 85 100 100 100 100 100 100 100 100 100 100 100 100 100 100 100 100 100 100 100 100 100 95 100 100 87 80 76 59 39 31
45 42 38 27 32 100 100 100 82 100 82 90 81 80 41 35 40 60 41 99 100 100 100 100 100 100 100 100 100 100 100 100 100 100 100 98 97 100 99 95 92 100 89 74 68 48 37 30 24
82 78 70 97 64 85 100 100 100 99 99 96 94 100 83 76 57 51 59 64 100 100 100 100 100 100 100 100 100 100 100 100 100 100 100 100 100 100 100 97 90 78 68 59 45 33 25 23 27
100 92 100 100 84 90 87 100 100 100 98 78 94 100 93 92 95 89 72 59 57 87 100 100 100 100 100 100 100 100 100 100 100 100 100 100 100 100 94 76 76 62 52 46 37 32 38 45 72
100 100 100 100 94 89 96 92 89 90 96 92 100 100 95 100 100 100 100 96 100 100 98 98 75 94 100 100 100 100 100 100 100 100 98 99 90 88 86 68 62 42 37 48 48 50 99 100 100
100 100 100 98 100 100 97 85 86 85 75 93 84 94 100 100 100 100 100 100 100 100 100 100 100 100 100 100 100 100 100 100 100 97 83 72 65 63 50 45 53 56 52 66 78 90 98 100 90
100 100 100 100 97 94 97 86 94 99 92 100 100 100 100 100 100 96 100 100 100 91 100 100 100 100 100 98 97 91 86 83 74 64 67 70 63 60 59 76 76 94 100 99 100 100 86 100 88
96 100 100 94 95 88 97 100 100 100 100 100 100 100 100 93 100 100 100 79 78 87 95 90 92 99 95 83 64 62 69 61 71 63 58 63 51 42 64 83 100 99 100 100 100 100 100 98 72
80 100 100 93 85 100 100 100 100 99 100 100 100 85 100 100 85 92 100 100 100 100 100 100 100 92 74 85 80 67 52 50 38 29 33 56 64 82 92 100 100 100 100 60 42 38 32 31 31
100 100 83 90 99 100 100 100 100 84 100 100 100 100 100 100 100 100 100 99 100 87 84 69 58 62 60 51 38 35 26 24 31 60 71 100 100 100 100 93 61 38 32 30 30 29 30 36 45
99 99 89 97 99 100 83 98 100 100 100 100 100 100 100 100 100 100 100 98 98 75 70 70 47 32 22 24 30 31 29 27 26 27 28 32 53 36 33 35 39 44 52 56 51 47 48 52 55
90 94 70 66 84 94 100 100 100 100 100 100 100 100 100 100 99 85 84 65 64 45 41 24 26 38 30 28 26 24 25 29 31 35 44 48 46 45 48 55 61 62 60 61 52 47 44 44 45
100 75 71 99 100 100 100 95 100 100 92 77 76 69 68 57 54 52 36 36 35 23 32 33 31 28 25 26 28 31 39 41 41 43 46 47 55 63 71 78 82 78 72 68 58 51 48 48 48
100 100 100 100 100 100 97 74 70 96 99 91 78 35 39 38 37 32 25 32 35 36 31 28 28 31 34 36 32 35 36 38 41 46 51 56 65 75 70 68 63 56 52 45 43 44 43 45 51
100 100 100 100 97 86 98 100 96 61 64 39 51 39 31 22 29 37 37 37 36 32 30 31 31 31 36 34 33 37 39 40 43 46 52 59 70 73 66 63 63 56 49 47 46 49 54 62 66
92 88 100 100 81 90 70 57 46 51 53 47 28 33 40 40 39 40 40 39 36 36 37 35 33 33 36 32 36 34 37 42 48 49 57 69 78 81 67 73 63 55 55 54 59 62 64 62 60
99 97 92 82 63 40 45 45 58 46 28 31 41 45 37 36 38 41 41 44 41 42 43 37 35 39 41 36 33 37 41 49 51 53 60 73 85 74 74 70 63 58 61 64 66 62 58 60 55
70 95 42 41 48 50 45 41 30 25 39 48 43 35 31 34 38 45 50 50 53 52 52 46 45 47 46 40 40 41 43 53 54 55 67 79 72 75 70 66 62 63 67 72 68 62 59 64 70
74 60 56 57 46 42 29 26 41 52 52 44 40 40 42 46 52 57 56 56 58 64 61 60 59 48 48 41 45 44 49 53 53 58 76 80 82 75 68 63 66 72 83 74 65 64 72 75 57
82 64 41 37 34 29 28 48 52 57 50 47 44 49 52 57 58 62 60 56 59 65 70 71 69 63 66 65 56 53 55 56 56 68 81 77 79 72 67 68 78 82 73 73 73 85 85 60 44

GFSSGP_250_rhum_048.txt.gz
RH
4 4 4 5 5 5 6 6 7 6 6 6 7 8 7 7 8 16 16 16 22 22 22 22 22 22 20 21 23 29 34 44 44 53 60 52 58 44 56 53 55 60 57 58 60 85 78 82 69
5 5 6 5 5 5 6 7 7 6 8 7 7 9 9 9 8 11 14 18 25 25 24 26 30 27 26 28 32 40 80 68 67 90 83 68 62 60 62 61 68 76 58 67 77 86 92 63 41
7 8 8 7 5 6 6 6 6 6 7 8 8 9 10 10 10 13 13 16 19 18 20 22 32 31 31 32 44 49 66 95 100 100 99 81 84 84 85 90 92 81 72 64 85 94 98 48 41
8 9 10 10 8 7 6 6 6 7 7 8 9 9 10 11 12 12 13 14 16 17 22 21 23 30 41 43 67 100 100 100 100 100 91 91 80 87 100 98 100 100 84 100 100 100 100 57 91
9 10 12 11 10 8 7 8 7 8 9 9 8 8 9 9 11 12 21 19 19 40 76 74 76 77 72 96 82 100 100 100 100 99 100 99 100 100 100 100 100 100 100 100 97 74 80 43 74
13 13 14 12 12 9 9 10 10 11 12 10 10 10 10 10 14 19 48 57 69 100 100 100 99 64 83 96 100 100 100 100 100 100 100 100 100 100 100 96 97 100 100 96 52 86 100 100 100
13 14 15 15 13 12 12 12 15 16 45 54 29 23 19 14 16 39 28 74 100 100 100 100 100 97 100 100 100 100 100 100 100 100 100 100 100 98 84 99 100 93 96 95 100 96 72 86 100
18 24 29 23 21 15 12 12 11 13 82 65 47 47 49 24 16 15 11 39 86 100 100 100 100 100 100 100 100 100 100 100 100 100 99 97 79 100 89 100 100 96 100 100 72 100 100 100 100
30 31 40 26 13 11 10 11 29 52 30 45 79 68 32 16 11 11 22 15 50 100 100 100 100 100 100 100 100 100 100 100 98 100 98 100 100 100 100 100 100 100 100 100 100 98 100 100 100
66 65 40 18 14 13 13 18 36 88 96 100 100 87 41 22 46 57 52 40 26 95 100 100 100 100 100 100 100 100 100 100 100 100 100 100 100 100 88 96 99 97 99 90 97 100 100 97 98
100 91 50 32 23 18 18 18 20 62 100 100 100 94 84 92 80 100 100 99 87 61 87 100 100 100 100 100 100 100 100 100 100 100 99 100 100 100 100 100 100 96 100 100 100 99 100 100 100
99 86 48 24 22 31 37 34 100 100 100 78 54 81 100 100 99 100 100 100 100 84 79 98 100 99 100 99 98 99 100 100 100 100 100 100 100 100 100 100 92 100 100 92 99 100 98 100 98
86 71 49 37 37 43 69 77 100 100 99 43 72 89 100 98 92 100 97 91 100 100 100 100 100 95 76 100 100 99 100 100 100 100 100 100 99 100 100 100 100 98 100 100 99 96 93 87 84
68 74 75 78 81 52 39 100 100 100 64 90 83 87 100 100 100 100 100 86 100 100 100 100 100 100 100 100 100 100 100 100 100 100 100 100 100 100 100 100 100 100 100 100 95 86 75 63 59
90 92 100 100 87 57 44 100 100 100 92 100 100 99 76 100 100 100 100 100 100 100 100 100 100 100 100 100 100 100 100 100 100 100 100 100 100 98 100 100 100 100 100 91 82 64 42 37 37
100 100 100 94 100 87 83 93 100 100 100 100 100 100 100 100 95 100 100 100 95 100 100 100 100 100 100 100 100 100 100 100 100 100 100 99 100 93 97 100 100 98 82 69 47 30 28 29 30
100 100 98 100 100 82 99 98 100 100 100 97 97 100 88 100 100 91 91 97 100 99 96 100 100 100 100 100 100 100 98 94 95 100 100 97 100 100 98 88 83 75 59 41 26 30 43 46 48
100 100 100 98 100 99 100 100 100 100 100 92 100 100 94 100 100 100 100 100 83 94 100 100 100 98 100 100 94 100 96 91 70 82 73 98 100 91 73 56 49 31 26 32 36 43 44 47 52
98 100 88 81 92 93 78 100 96 100 100 100 100 100 100 100 100 100 100 100 100 100 76 71 68 76 100 100 100 78 63 59 63 78 100 100 95 50 36 28 27 27 33 36 38 38 42 42 45
100 80 95 92 100 100 99 100 100 100 100 100 100 100 100 91 97 100 91 92 96 100 100 100 99 99 89 78 76 92 100 100 90 74 59 45 37 28 27 28 28 35 33 32 34 34 35 39 46
100 99 88 100 100 98 94 100 95 100 96 94 90 98 100 100 100 100 100 100 94 83 90 95 97 100 100 100 96 84 73 68 65 46 35 30 29 28 28 31 33 32 30 29 31 39 44 42 49
100 91 94 93 100 100 100 100 76 83 95 100 100 100 100 97 98 100 100 100 100 100 100 100 100 96 94 83 60 54 54 43 33 29 29 29 27 28 32 31 28 27 28 32 40 52 45 47 52
100 89 100 100 100 100 93 100 100 100 99 99 91 88 100 100 100 100 100 99 88 73 68 62 69 73 65 56 45 46 35 34 32 30 29 28 28 28 26 24 25 29 38 45 51 42 46 54 54
78 68 100 98 100 100 100 92 78 97 87 84 90 94 89 92 85 74 58 58 55 44 44 71 67 37 34 36 40 36 36 35 33 32 30 29 29 30 34 36 38 39 40 50 46 46 53 55 48
75 69 88 78 87 83 85 71 67 76 76 67 67 64 64 60 60 57 52 36 35 34 28 37 83 48 43 43 38 38 38 38 37 35 36 35 34 38 37 31 31 34 41 41 42 44 52 48 49
67 72 82 81 62 62 75 66 76 99 97 82 61 53 49 42 42 40 40 35 34 32 36 55 79 66 45 43 43 41 40 39 45 49 44 39 36 32 33 36 30 33 43 46 54 56 49 52 60
83 69 98 100 82 56 50 74 79 83 88 78 58 25 27 35 42 39 36 45 42 42 67 77 84 70 53 49 42 36 43 48 50 46 43 41 41 40 42 40 42 51 51 49 53 54 60 59 72
83 97 98 98 80 69 67 74 72 64 48 27 38 44 35 38 35 30 41 49 44 63 77 79 64 47 47 45 49 49 51 49 47 49 50 57 54 52 50 58 60 54 56 63 66 68 62 71 76
93 75 78 80 83 65 61 57 48 33 30 42 53 44 37 33 35 53 52 45 42 43 42 42 46 47 46 47 50 50 48 50 58 66 69 60 59 60 67 58 52 56 66 67 67 68 74 75 77
94 97 91 83 74 73 59 38 31 29 33 38 46 33 29 34 45 55 50 48 52 51 53 53 52 48 48 48 45 47 49 61 70 73 69 62 56 57 57 55 62 66 67 72 75 74 73 69 60

GFSSGP_250_rhum_051.txt.gz
RH
5 6 5 5 5 5 5 5 5 6 7 7 8 7 7 8 9 12 12 13 14 12 13 12 15 18 21 21 20 23 22 23 25 25 24 28 32 38 50 54 66 66 58 58 49 52 58 54 76
7 6 6 6 6 6 6 5 5 6 6 6 7 7 8 8 8 9 11 13 14 12 14 16 19 20 25 28 29 29 30 32 31 30 33 43 52 69 79 78 82 68 66 66 68 73 64 68 77
7 7 6 8 8 8 8 6 5 6 12 8 7 6 7 8 9 9 9 11 13 16 20 20 24 24 25 29 35 35 35 35 34 38 58 60 77 85 95 94 90 85 85 82 73 66 62 68 69
10 8 7 7 8 9 9 10 8 12 8 12 9 8 8 10 9 10 11 16 18 36 47 40 35 23 24 38 33 25 34 42 41 45 51 91 100 100 100 100 86 97 81 75 80 81 94 100 100
13 10 10 9 8 10 11 11 10 9 8 11 10 8 8 10 10 12 19 42 62 84 85 81 47 24 48 98 90 74 68 86 87 99 100 100 100 100 100 100 100 81 81 90 100 99 73 92 83
18 18 15 12 11 10 12 12 12 12 10 11 11 19 13 13 13 20 13 33 40 70 58 59 64 80 100 100 97 78 100 100 100 100 100 100 100 100 100 100 99 100 100 100 85 93 92 56 48
25 37 19 20 14 13 12 14 13 12 13 14 17 24 15 12 14 18 20 25 49 52 100 100 100 100 100 100 100 92 100 100 100 100 100 100 100 100 100 100 100 93 98 93 96 92 89 92 100
43 45 26 64 16 14 13 11 12 14 14 23 23 24 45 31 20 11 19 48 59 100 100 100 100 92 100 100 100 100 100 100 100 100 93 100 100 96 87 100 83 72 66 60 82 56 66 65 78
51 55 27 30 14 17 14 14 15 42 97 68 100 100 86 66 33 19 14 23 72 98 98 100 100 100 100 100 100 100 100 100 100 98 100 90 100 100 98 100 100 98 100 100 100 100 100 78 83
52 68 24 24 44 28 28 20 21 44 100 100 100 100 100 100 71 42 22 27 71 100 91 100 100 100 100 100 100 100 100 100 100 100 99 97 100 98 94 95 100 100 93 93 90 81 87 96 88
81 51 30 23 36 39 45 34 48 43 100 100 100 100 100 82 47 32 18 15 20 89 100 100 100 100 100 100 100 100 100 100 100 100 100 100 100 100 100 100 100 100 100 100 100 100 92 93 87
81 58 46 40 63 93 68 73 72 100 100 100 100 100 84 100 76 68 70 85 43 37 100 100 100 100 100 100 100 100 100 100 100 100 100 100 100 99 100 100 100 98 90 100 100 99 100 91 100
46 50 83 82 94 99 100 100 94 96 100 100 100 97 90 100 100 99 100 97 80 62 81 100 100 100 100 100 100 100 100 100 100 100 100 100 100 100 100 100 91 94 100 100 90 95 86 97 88
50 47 97 94 100 100 100 93 67 55 100 100 100 85 100 100 100 100 96 90 92 88 82 98 96 100 100 100 100 100 100 100 100 96 100 100 100 100 100 100 97 97 100 99 88 95 93 87 82
69 69 100 100 100 94 64 83 54 99 100 66 100 94 100 100 100 100 99 100 74 76 84 98 100 98 99 100 100 100 100 100 100 93 100 100 100 100 89 100 100 100 94 92 93 90 88 70 57
74 79 100 97 98 86 81 75 80 100 99 95 89 80 100 100 100 100 100 100 71 66 91 99 86 74 86 83 100 100 100 88 100 100 100 100 99 86 100 100 100 100 92 95 90 80 60 51 44
97 96 97 98 96 100 96 100 100 100 100 100 100 100 100 100 100 100 92 89 100 94 87 97 97 97 94 97 100 100 100 100 100 100 100 98 100 100 100 88 92 81 79 86 87 68 46 30 33
86 99 100 100 99 100 94 97 100 100 100 100 100 100 100 100 100 100 100 98 92 100 100 100 100 100 100 100 100 100 100 100 100 100 95 94 73 62 69 91 100 98 81 59 39 32 29 32 36
96 100 100 99 82 96 100 100 100 100 100 100 100 100 100 100 100 100 100 100 100 100 100 96 100 96 100 100 100 100 91 89 99 90 81 69 73 100 100 86 69 41 33 30 30 30 33 34 32
100 100 100 80 89 100 100 98 99 99 100 100 100 100 97 94 77 74 95 84 79 95 100 100 100 100 100 97 96 95 94 61 54 91 93 100 86 75 70 52 35 31 29 30 29 31 34 32 28
86 94 86 78 97 85 100 100 100 100 100 100 100 100 100 97 100 100 100 100 100 99 100 94 74 95 100 100 94 92 71 88 99 88 64 58 60 40 34 32 31 30 29 28 28 29 29 28 28
85 86 90 76 96 100 100 100 100 99 100 100 100 100 100 100 100 100 100 85 100 100 100 100 100 100 94 91 89 79 68 55 47 51 56 47 40 37 33 32 31 29 29 28 28 25 25 27 32
90 97 89 76 80 100 94 90 100 100 100 100 100 100 100 99 100 100 94 78 75 84 93 86 79 63 51 53 56 52 42 39 60 53 40 39 40 39 37 37 38 36 34 34 31 36 47 48 50
97 90 89 85 89 93 100 99 100 97 100 90 85 82 78 82 79 76 84 90 72 66 59 54 48 46 68 90 88 65 54 49 49 40 37 38 40 42 40 36 37 43 44 54 57 54 52 59 58
100 95 89 95 84 66 83 68 72 95 93 97 100 100 86 79 89 84 77 66 69 58 57 45 34 69 99 100 98 88 74 56 44 44 45 44 41 38 39 43 44 50 55 53 47 48 55 55 51
100 95 96 82 74 66 91 100 84 86 86 84 81 93 99 78 60 50 45 47 40 42 37 38 51 91 99 100 100 98 77 60 47 44 43 40 42 43 46 49 50 50 54 53 54 54 50 45 51
92 96 87 85 79 60 61 71 77 71 63 56 54 66 64 59 61 40 37 31 38 36 39 43 67 95 100 99 84 83 69 50 44 40 37 40 44 46 49 54 51 55 56 54 53 52 52 55 53
77 84 92 94 85 85 71 68 60 56 60 60 58 52 38 31 43 54 44 40 36 40 47 54 90 93 88 72 79 62 50 40 35 36 41 48 51 57 52 61 59 62 57 60 56 54 54 56 57
71 87 94 89 86 88 85 97 91 78 68 62 32 23 22 30 36 39 34 33 36 51 74 78 64 71 68 59 54 48 49 45 44 46 53 62 60 55 68 66 62 64 60 60 61 58 58 63 70
66 93 100 100 98 99 86 84 76 67 56 43 43 51 47 49 43 30 32 46 66 70 57 56 61 47 39 60 61 52 44 42 49 60 61 57 71 80 73 61 62 65 66 64 62 64 68 75 72